Time,TemperatureF,DewpointF,PressureIn,WindDirection,WindDirectionDegrees,WindSpeedMPH,WindSpeedGustMPH,Humidity,HourlyPrecipIn,Conditions,Clouds,dailyrainin,SoftwareType,DateUTC
2013-04-09 00:00:00,53.5,49.1,29.91,East,98,5.0,6.0,85,0.00,,,0.77,Wunderground v.1.15,2013-04-09 05:00:00,
2013-04-09 00:02:00,53.5,49.1,29.91,East,98,5.0,6.0,85,0.00,,,0.00,Wunderground v.1.15,2013-04-09 05:02:00,
2013-04-09 00:04:00,53.4,49.0,29.91,East,94,5.0,6.0,85,0.00,,,0.00,Wunderground v.1.15,2013-04-09 05:04:00,
2013-04-09 00:05:00,53.4,49.0,29.91,East,91,5.0,6.0,85,0.00,,,0.00,Wunderground v.1.15,2013-04-09 05:05:00,
2013-04-09 00:07:00,53.3,48.9,29.91,East,84,4.0,6.0,85,0.00,,,0.00,Wunderground v.1.15,2013-04-09 05:07:00,
2013-04-09 00:11:00,53.2,48.8,29.92,ESE,103,4.0,4.0,85,0.00,,,0.00,Wunderground v.1.15,2013-04-09 05:11:00,
2013-04-09 00:12:00,53.1,48.7,29.92,East,91,4.0,5.0,85,0.00,,,0.00,Wunderground v.1.15,2013-04-09 05:12:00,
2013-04-09 00:13:00,53.0,48.6,29.92,East,90,4.0,7.0,85,0.00,,,0.00,Wunderground v.1.15,2013-04-09 05:13:00,
2013-04-09 00:15:00,52.8,48.4,29.92,East,83,4.0,7.0,85,0.00,,,0.00,Wunderground v.1.15,2013-04-09 05:15:00,
2013-04-09 00:18:00,52.7,48.0,29.92,East,86,4.0,9.0,84,0.00,,,0.00,Wunderground v.1.15,2013-04-09 05:18:00,
2013-04-09 00:22:00,52.4,47.7,29.92,ENE,71,5.0,9.0,84,0.00,,,0.00,Wunderground v.1.15,2013-04-09 05:22:00,
2013-04-09 00:23:00,52.3,47.6,29.92,ENE,60,5.0,9.0,84,0.00,,,0.00,Wunderground v.1.15,2013-04-09 05:23:00,
2013-04-09 00:27:00,52.1,47.4,29.92,ENE,67,5.0,9.0,84,0.00,,,0.00,Wunderground v.1.15,2013-04-09 05:27:00,
2013-04-09 00:29:00,52.0,47.6,29.92,ESE,104,5.0,9.0,85,0.00,,,0.00,Wunderground v.1.15,2013-04-09 05:29:00,
2013-04-09 00:32:00,51.8,47.4,29.92,ENE,78,5.0,9.0,85,0.00,,,0.00,Wunderground v.1.15,2013-04-09 05:32:00,
2013-04-09 00:35:00,51.5,47.1,29.92,East,98,4.0,9.0,85,0.00,,,0.00,Wunderground v.1.15,2013-04-09 05:35:00,
2013-04-09 00:36:00,51.5,47.1,29.92,East,83,4.0,9.0,85,0.00,,,0.00,Wunderground v.1.15,2013-04-09 05:36:00,
2013-04-09 00:37:00,51.4,47.0,29.92,East,79,4.0,9.0,85,0.00,,,0.00,Wunderground v.1.15,2013-04-09 05:37:00,
2013-04-09 00:39:00,51.3,46.9,29.92,East,98,4.0,9.0,85,0.00,,,0.00,Wunderground v.1.15,2013-04-09 05:39:00,
2013-04-09 00:42:00,51.2,46.8,29.92,ESE,120,4.0,6.0,85,0.00,,,0.00,Wunderground v.1.15,2013-04-09 05:42:00,
2013-04-09 00:43:00,51.0,46.6,29.92,East,88,4.0,6.0,85,0.00,,,0.00,Wunderground v.1.15,2013-04-09 05:43:00,
2013-04-09 00:47:00,50.8,46.5,29.92,East,84,5.0,9.0,85,0.00,,,0.00,Wunderground v.1.15,2013-04-09 05:47:00,
2013-04-09 00:48:00,50.7,46.4,29.92,ENE,76,5.0,9.0,85,0.00,,,0.00,Wunderground v.1.15,2013-04-09 05:48:00,
2013-04-09 00:49:00,50.6,46.3,29.92,East,91,5.0,9.0,85,0.00,,,0.00,Wunderground v.1.15,2013-04-09 05:49:00,
2013-04-09 00:50:00,50.5,46.2,29.92,ENE,65,5.0,6.0,85,0.00,,,0.00,Wunderground v.1.15,2013-04-09 05:50:00,
2013-04-09 00:54:00,50.3,46.0,29.92,East,88,5.0,9.0,85,0.00,,,0.00,Wunderground v.1.15,2013-04-09 05:54:00,
2013-04-09 00:55:00,50.2,46.2,29.92,ESE,103,6.0,9.0,86,0.00,,,0.00,Wunderground v.1.15,2013-04-09 05:55:00,
2013-04-09 00:56:00,50.2,46.2,29.91,East,98,5.0,9.0,86,0.00,,,0.00,Wunderground v.1.15,2013-04-09 05:56:00,
2013-04-09 00:59:00,50.0,46.0,29.91,East,82,5.0,9.0,86,0.00,,,0.00,Wunderground v.1.15,2013-04-09 05:59:00,
2013-04-09 01:02:00,49.8,45.8,29.91,East,96,5.0,9.0,86,0.00,,,0.00,Wunderground v.1.15,2013-04-09 06:02:00,
2013-04-09 01:03:00,49.8,45.8,29.91,ENE,58,5.0,10.0,86,0.00,,,0.00,Wunderground v.1.15,2013-04-09 06:03:00,
2013-04-09 01:04:00,49.7,45.7,29.91,East,79,5.0,10.0,86,0.00,,,0.00,Wunderground v.1.15,2013-04-09 06:04:00,
2013-04-09 01:10:00,49.4,45.4,29.91,ENE,69,4.0,6.0,86,0.00,,,0.00,Wunderground v.1.15,2013-04-09 06:10:00,
2013-04-09 01:12:00,49.4,45.4,29.91,East,94,5.0,9.0,86,0.00,,,0.00,Wunderground v.1.15,2013-04-09 06:12:00,
2013-04-09 01:14:00,49.3,45.6,29.92,ESE,104,5.0,9.0,87,0.00,,,0.00,Wunderground v.1.15,2013-04-09 06:14:00,
2013-04-09 01:15:00,49.2,45.5,29.92,East,94,5.0,9.0,87,0.00,,,0.00,Wunderground v.1.15,2013-04-09 06:15:00,
2013-04-09 01:16:00,49.2,45.5,29.92,East,88,5.0,9.0,87,0.00,,,0.00,Wunderground v.1.15,2013-04-09 06:16:00,
2013-04-09 01:19:00,49.1,45.4,29.91,East,98,5.0,10.0,87,0.00,,,0.00,Wunderground v.1.15,2013-04-09 06:19:00,
2013-04-09 01:22:00,49.1,45.4,29.91,East,98,5.0,10.0,87,0.00,,,0.00,Wunderground v.1.15,2013-04-09 06:22:00,
2013-04-09 01:25:00,48.9,45.2,29.91,East,91,5.0,13.0,87,0.00,,,0.00,Wunderground v.1.15,2013-04-09 06:25:00,
2013-04-09 01:28:00,48.8,45.1,29.91,East,84,5.0,13.0,87,0.00,,,0.00,Wunderground v.1.15,2013-04-09 06:28:00,
2013-04-09 01:30:00,48.8,45.1,29.91,ESE,122,5.0,5.0,87,0.00,,,0.00,Wunderground v.1.15,2013-04-09 06:30:00,
2013-04-09 01:32:00,48.7,45.0,29.91,ESE,111,4.0,10.0,87,0.00,,,0.00,Wunderground v.1.15,2013-04-09 06:32:00,
2013-04-09 01:34:00,48.7,45.0,29.91,ESE,102,4.0,10.0,87,0.00,,,0.00,Wunderground v.1.15,2013-04-09 06:34:00,
2013-04-09 01:37:00,48.6,44.9,29.91,East,98,4.0,10.0,87,0.00,,,0.00,Wunderground v.1.15,2013-04-09 06:37:00,
2013-04-09 01:42:00,48.4,44.7,29.91,ESE,113,5.0,9.0,87,0.00,,,0.00,Wunderground v.1.15,2013-04-09 06:42:00,
2013-04-09 01:43:00,48.4,44.7,29.91,East,82,5.0,9.0,87,0.00,,,0.00,Wunderground v.1.15,2013-04-09 06:43:00,
2013-04-09 01:44:00,48.4,44.7,29.91,ESE,108,6.0,9.0,87,0.00,,,0.00,Wunderground v.1.15,2013-04-09 06:44:00,
2013-04-09 01:45:00,48.4,44.7,29.90,ESE,110,6.0,9.0,87,0.00,,,0.00,Wunderground v.1.15,2013-04-09 06:45:00,
2013-04-09 01:50:00,48.3,44.6,29.91,ESE,105,7.0,7.0,87,0.00,,,0.00,Wunderground v.1.15,2013-04-09 06:50:00,
2013-04-09 01:52:00,48.3,44.6,29.91,ENE,70,6.0,7.0,87,0.00,,,0.00,Wunderground v.1.15,2013-04-09 06:52:00,
2013-04-09 01:53:00,48.3,44.6,29.90,ESE,113,6.0,10.0,87,0.00,,,0.00,Wunderground v.1.15,2013-04-09 06:53:00,
2013-04-09 01:55:00,48.3,44.6,29.90,NNE,26,6.0,10.0,87,0.00,,,0.00,Wunderground v.1.15,2013-04-09 06:55:00,
2013-04-09 01:57:00,48.3,44.9,29.91,ESE,107,6.0,10.0,88,0.00,,,0.00,Wunderground v.1.15,2013-04-09 06:57:00,
2013-04-09 01:58:00,48.3,44.9,29.91,East,84,6.0,10.0,88,0.00,,,0.00,Wunderground v.1.15,2013-04-09 06:58:00,
2013-04-09 02:00:00,48.2,44.8,29.91,East,80,5.0,5.0,88,0.00,,,0.00,Wunderground v.1.15,2013-04-09 07:00:00,
2013-04-09 02:04:00,48.2,44.8,29.90,East,95,4.0,5.0,88,0.00,,,0.00,Wunderground v.1.15,2013-04-09 07:04:00,
2013-04-09 02:06:00,48.2,44.8,29.90,East,84,4.0,5.0,88,0.00,,,0.00,Wunderground v.1.15,2013-04-09 07:06:00,
2013-04-09 02:07:00,48.2,44.8,29.90,ENE,78,4.0,5.0,88,0.00,,,0.00,Wunderground v.1.15,2013-04-09 07:07:00,
2013-04-09 02:13:00,48.1,44.7,29.90,East,80,4.0,5.0,88,0.00,,,0.00,Wunderground v.1.15,2013-04-09 07:13:00,
2013-04-09 02:16:00,48.1,44.7,29.90,East,82,5.0,6.0,88,0.00,,,0.00,Wunderground v.1.15,2013-04-09 07:16:00,
2013-04-09 02:17:00,48.0,44.6,29.90,East,86,5.0,8.0,88,0.00,,,0.00,Wunderground v.1.15,2013-04-09 07:17:00,
2013-04-09 02:18:00,48.0,44.6,29.90,East,101,5.0,8.0,88,0.00,,,0.00,Wunderground v.1.15,2013-04-09 07:18:00,
2013-04-09 02:22:00,47.9,44.5,29.91,East,98,5.0,5.0,88,0.00,,,0.00,Wunderground v.1.15,2013-04-09 07:22:00,
2013-04-09 02:24:00,47.9,44.5,29.90,ENE,59,5.0,5.0,88,0.00,,,0.00,Wunderground v.1.15,2013-04-09 07:24:00,
2013-04-09 02:25:00,47.9,44.5,29.90,ENE,67,5.0,5.0,88,0.00,,,0.00,Wunderground v.1.15,2013-04-09 07:25:00,
2013-04-09 02:27:00,47.8,44.4,29.90,East,97,4.0,8.0,88,0.00,,,0.00,Wunderground v.1.15,2013-04-09 07:27:00,
2013-04-09 02:30:00,47.7,44.6,29.91,ESE,114,5.0,5.0,89,0.00,,,0.01,Wunderground v.1.15,2013-04-09 07:30:00,
2013-04-09 02:32:00,47.7,44.6,29.91,ENE,72,5.0,6.0,89,0.15,,,0.02,Wunderground v.1.15,2013-04-09 07:32:00,
2013-04-09 02:33:00,47.6,44.5,29.91,ENE,76,5.0,6.0,89,0.15,,,0.02,Wunderground v.1.15,2013-04-09 07:33:00,
2013-04-09 02:35:00,47.5,44.4,29.90,ENE,71,5.0,6.0,89,0.13,,,0.02,Wunderground v.1.15,2013-04-09 07:35:00,
2013-04-09 02:37:00,47.4,44.6,29.90,NNE,22,5.0,6.0,90,0.10,,,0.02,Wunderground v.1.15,2013-04-09 07:37:00,
2013-04-09 02:38:00,47.4,44.6,29.90,East,87,5.0,6.0,90,0.08,,,0.02,Wunderground v.1.15,2013-04-09 07:38:00,
2013-04-09 02:41:00,47.2,44.4,29.90,East,85,5.0,5.0,90,0.59,,,0.07,Wunderground v.1.15,2013-04-09 07:41:00,
2013-04-09 02:42:00,47.2,44.4,29.90,ENE,57,4.0,5.0,90,0.46,,,0.07,Wunderground v.1.15,2013-04-09 07:42:00,
2013-04-09 02:43:00,47.1,44.3,29.90,ENE,57,4.0,5.0,90,0.27,,,0.07,Wunderground v.1.15,2013-04-09 07:43:00,
2013-04-09 02:45:00,47.0,44.2,29.90,ENE,77,4.0,7.0,90,0.13,,,0.07,Wunderground v.1.15,2013-04-09 07:45:00,
2013-04-09 02:48:00,47.0,44.5,29.90,East,91,4.0,7.0,91,0.08,,,0.07,Wunderground v.1.15,2013-04-09 07:48:00,
2013-04-09 02:49:00,46.9,44.4,29.90,ENE,69,3.0,7.0,91,0.07,,,0.07,Wunderground v.1.15,2013-04-09 07:49:00,
2013-04-09 02:51:00,46.9,44.4,29.90,NE,36,3.0,3.0,91,0.06,,,0.07,Wunderground v.1.15,2013-04-09 07:51:00,
2013-04-09 02:54:00,46.8,44.6,29.90,East,84,4.0,7.0,92,0.05,,,0.07,Wunderground v.1.15,2013-04-09 07:54:00,
2013-04-09 02:55:00,46.8,44.3,29.90,East,94,4.0,7.0,91,0.04,,,0.07,Wunderground v.1.15,2013-04-09 07:55:00,
2013-04-09 02:56:00,46.8,44.3,29.90,ENE,62,4.0,7.0,91,0.04,,,0.07,Wunderground v.1.15,2013-04-09 07:56:00,
2013-04-09 02:57:00,46.7,44.2,29.90,ENE,59,4.0,7.0,91,0.04,,,0.07,Wunderground v.1.15,2013-04-09 07:57:00,
2013-04-09 03:03:00,46.5,44.3,29.89,ENE,67,5.0,6.0,92,0.00,,,0.07,Wunderground v.1.15,2013-04-09 08:03:00,
2013-04-09 03:04:00,46.5,44.3,29.89,ENE,71,5.0,6.0,92,0.00,,,0.07,Wunderground v.1.15,2013-04-09 08:04:00,
2013-04-09 03:07:00,46.4,44.2,29.89,ENE,63,5.0,9.0,92,0.00,,,0.07,Wunderground v.1.15,2013-04-09 08:07:00,
2013-04-09 03:08:00,46.4,44.2,29.89,ESE,104,5.0,9.0,92,0.00,,,0.07,Wunderground v.1.15,2013-04-09 08:08:00,
2013-04-09 03:12:00,46.3,44.1,29.89,East,79,5.0,10.0,92,0.00,,,0.07,Wunderground v.1.15,2013-04-09 08:12:00,
2013-04-09 03:13:00,46.3,44.1,29.89,East,79,5.0,10.0,92,0.00,,,0.07,Wunderground v.1.15,2013-04-09 08:13:00,
2013-04-09 03:14:00,46.3,44.1,29.90,ENE,63,5.0,10.0,92,0.00,,,0.07,Wunderground v.1.15,2013-04-09 08:14:00,
2013-04-09 03:18:00,46.2,44.0,29.90,NE,52,5.0,10.0,92,0.00,,,0.07,Wunderground v.1.15,2013-04-09 08:18:00,
2013-04-09 03:19:00,46.2,44.0,29.90,East,82,5.0,10.0,92,0.00,,,0.07,Wunderground v.1.15,2013-04-09 08:19:00,
2013-04-09 03:20:00,46.2,44.0,29.89,East,88,5.0,5.0,92,0.00,,,0.07,Wunderground v.1.15,2013-04-09 08:20:00,
2013-04-09 03:22:00,46.2,44.0,29.89,ENE,76,5.0,5.0,92,0.00,,,0.07,Wunderground v.1.15,2013-04-09 08:22:00,
2013-04-09 03:25:00,46.1,43.9,29.89,ENE,76,5.0,7.0,92,0.00,,,0.07,Wunderground v.1.15,2013-04-09 08:25:00,
2013-04-09 03:27:00,46.1,43.9,29.89,ENE,75,5.0,7.0,92,0.00,,,0.07,Wunderground v.1.15,2013-04-09 08:27:00,
2013-04-09 03:28:00,46.1,43.9,29.89,ESE,105,5.0,7.0,92,0.00,,,0.07,Wunderground v.1.15,2013-04-09 08:28:00,
2013-04-09 03:32:00,46.0,43.8,29.90,East,84,5.0,8.0,92,0.00,,,0.07,Wunderground v.1.15,2013-04-09 08:32:00,
2013-04-09 03:33:00,45.9,43.7,29.90,East,100,5.0,8.0,92,0.00,,,0.07,Wunderground v.1.15,2013-04-09 08:33:00,
2013-04-09 03:34:00,45.9,43.7,29.90,East,92,5.0,8.0,92,0.00,,,0.07,Wunderground v.1.15,2013-04-09 08:34:00,
2013-04-09 03:36:00,45.9,43.7,29.90,East,96,5.0,8.0,92,0.00,,,0.07,Wunderground v.1.15,2013-04-09 08:36:00,
2013-04-09 03:40:00,45.7,43.5,29.90,East,90,5.0,5.0,92,0.00,,,0.07,Wunderground v.1.15,2013-04-09 08:40:00,
2013-04-09 03:43:00,45.7,43.5,29.90,East,86,5.0,11.0,92,0.00,,,0.07,Wunderground v.1.15,2013-04-09 08:43:00,
2013-04-09 03:44:00,45.7,43.5,29.90,NE,39,5.0,11.0,92,0.00,,,0.07,Wunderground v.1.15,2013-04-09 08:44:00,
2013-04-09 03:46:00,45.6,43.4,29.90,ENE,76,5.0,11.0,92,0.00,,,0.07,Wunderground v.1.15,2013-04-09 08:46:00,
2013-04-09 03:47:00,45.6,43.4,29.90,ENE,63,5.0,11.0,92,0.00,,,0.07,Wunderground v.1.15,2013-04-09 08:47:00,
2013-04-09 03:52:00,45.5,43.3,29.90,ENE,57,5.0,6.0,92,0.00,,,0.07,Wunderground v.1.15,2013-04-09 08:52:00,
2013-04-09 03:53:00,45.5,43.3,29.89,ESE,120,5.0,6.0,92,0.00,,,0.07,Wunderground v.1.15,2013-04-09 08:53:00,
2013-04-09 03:54:00,45.5,43.3,29.89,ENE,78,5.0,6.0,92,0.00,,,0.07,Wunderground v.1.15,2013-04-09 08:54:00,
2013-04-09 03:58:00,45.4,43.2,29.89,ENE,58,5.0,10.0,92,0.00,,,0.07,Wunderground v.1.15,2013-04-09 08:58:00,
2013-04-09 03:59:00,45.4,43.2,29.89,ENE,59,4.0,10.0,92,0.00,,,0.07,Wunderground v.1.15,2013-04-09 08:59:00,
2013-04-09 04:03:00,45.3,43.1,29.89,SE,138,5.0,9.0,92,0.00,,,0.07,Wunderground v.1.15,2013-04-09 09:03:00,
2013-04-09 04:04:00,45.3,43.1,29.89,ESE,105,5.0,9.0,92,0.00,,,0.07,Wunderground v.1.15,2013-04-09 09:04:00,
2013-04-09 04:05:00,45.3,43.1,29.89,East,85,5.0,9.0,92,0.00,,,0.07,Wunderground v.1.15,2013-04-09 09:05:00,
2013-04-09 04:07:00,45.3,43.1,29.89,ENE,63,5.0,9.0,92,0.00,,,0.07,Wunderground v.1.15,2013-04-09 09:07:00,
2013-04-09 04:09:00,45.2,43.0,29.89,East,82,5.0,9.0,92,0.00,,,0.07,Wunderground v.1.15,2013-04-09 09:09:00,
2013-04-09 04:12:00,45.2,43.0,29.89,ENE,76,6.0,7.0,92,0.00,,,0.07,Wunderground v.1.15,2013-04-09 09:12:00,
2013-04-09 04:17:00,45.1,42.9,29.90,ENE,76,5.0,7.0,92,0.00,,,0.07,Wunderground v.1.15,2013-04-09 09:17:00,
2013-04-09 04:18:00,45.1,42.9,29.89,ENE,76,5.0,7.0,92,0.00,,,0.07,Wunderground v.1.15,2013-04-09 09:18:00,
2013-04-09 04:20:00,45.1,42.9,29.90,NE,54,6.0,6.0,92,0.00,,,0.07,Wunderground v.1.15,2013-04-09 09:20:00,
2013-04-09 04:22:00,45.1,42.9,29.90,East,80,5.0,6.0,92,0.00,,,0.07,Wunderground v.1.15,2013-04-09 09:22:00,
2013-04-09 04:24:00,45.0,42.8,29.90,NE,55,5.0,9.0,92,0.00,,,0.07,Wunderground v.1.15,2013-04-09 09:24:00,
2013-04-09 04:25:00,45.0,42.8,29.90,East,79,5.0,9.0,92,0.00,,,0.07,Wunderground v.1.15,2013-04-09 09:25:00,
2013-04-09 04:26:00,45.0,42.8,29.90,ENE,71,5.0,9.0,92,0.00,,,0.07,Wunderground v.1.15,2013-04-09 09:26:00,
2013-04-09 04:32:00,44.9,42.7,29.90,ENE,73,4.0,8.0,92,0.00,,,0.07,Wunderground v.1.15,2013-04-09 09:32:00,
2013-04-09 04:35:00,44.9,42.7,29.89,East,93,4.0,8.0,92,0.00,,,0.07,Wunderground v.1.15,2013-04-09 09:35:00,
2013-04-09 04:37:00,44.9,42.7,29.89,ENE,68,4.0,8.0,92,0.00,,,0.07,Wunderground v.1.15,2013-04-09 09:37:00,
2013-04-09 04:38:00,44.8,42.6,29.89,East,92,4.0,8.0,92,0.00,,,0.07,Wunderground v.1.15,2013-04-09 09:38:00,
2013-04-09 04:40:00,44.8,42.6,29.89,East,96,5.0,5.0,92,0.00,,,0.07,Wunderground v.1.15,2013-04-09 09:40:00,
2013-04-09 04:43:00,44.8,42.6,29.89,East,93,5.0,6.0,92,0.00,,,0.07,Wunderground v.1.15,2013-04-09 09:43:00,
2013-04-09 04:47:00,44.8,42.6,29.89,ESE,121,5.0,6.0,92,0.00,,,0.07,Wunderground v.1.15,2013-04-09 09:47:00,
2013-04-09 04:48:00,44.8,42.6,29.89,ESE,119,5.0,6.0,92,0.00,,,0.07,Wunderground v.1.15,2013-04-09 09:48:00,
2013-04-09 04:51:00,44.8,42.6,29.89,East,82,4.0,4.0,92,0.00,,,0.07,Wunderground v.1.15,2013-04-09 09:51:00,
2013-04-09 04:53:00,44.7,42.5,29.89,ENE,71,3.0,6.0,92,0.00,,,0.07,Wunderground v.1.15,2013-04-09 09:53:00,
2013-04-09 04:57:00,44.7,42.5,29.88,ENE,61,4.0,10.0,92,0.00,,,0.07,Wunderground v.1.15,2013-04-09 09:57:00,
2013-04-09 05:01:00,44.6,42.4,29.87,East,80,6.0,6.0,92,0.00,,,0.07,Wunderground v.1.15,2013-04-09 10:01:00,
2013-04-09 05:03:00,44.6,42.4,29.87,NE,43,6.0,9.0,92,0.00,,,0.07,Wunderground v.1.15,2013-04-09 10:03:00,
2013-04-09 05:04:00,44.6,42.4,29.87,East,101,6.0,9.0,92,0.00,,,0.07,Wunderground v.1.15,2013-04-09 10:04:00,
2013-04-09 05:05:00,44.6,42.4,29.87,ENE,74,6.0,9.0,92,0.00,,,0.07,Wunderground v.1.15,2013-04-09 10:05:00,
2013-04-09 05:08:00,44.6,42.4,29.87,ENE,71,6.0,9.0,92,0.00,,,0.07,Wunderground v.1.15,2013-04-09 10:08:00,
2013-04-09 05:09:00,44.5,42.3,29.87,ENE,76,6.0,9.0,92,0.00,,,0.07,Wunderground v.1.15,2013-04-09 10:09:00,
2013-04-09 05:10:00,44.5,42.3,29.87,ESE,113,6.0,9.0,92,0.00,,,0.07,Wunderground v.1.15,2013-04-09 10:10:00,
2013-04-09 05:15:00,44.5,42.3,29.87,ESE,120,7.0,10.0,92,0.00,,,0.07,Wunderground v.1.15,2013-04-09 10:15:00,
2013-04-09 05:17:00,44.5,42.3,29.87,East,94,7.0,10.0,92,0.00,,,0.07,Wunderground v.1.15,2013-04-09 10:17:00,
2013-04-09 05:18:00,44.4,42.2,29.87,East,95,7.0,10.0,92,0.00,,,0.07,Wunderground v.1.15,2013-04-09 10:18:00,
2013-04-09 05:23:00,44.4,42.2,29.86,ESE,118,6.0,8.0,92,0.00,,,0.07,Wunderground v.1.15,2013-04-09 10:23:00,
2013-04-09 05:25:00,44.4,42.2,29.86,ESE,109,6.0,8.0,92,0.00,,,0.07,Wunderground v.1.15,2013-04-09 10:25:00,
2013-04-09 05:27:00,44.3,42.1,29.87,ENE,71,6.0,8.0,92,0.00,,,0.07,Wunderground v.1.15,2013-04-09 10:27:00,
2013-04-09 05:32:00,44.4,42.2,29.87,ESE,113,6.0,9.0,92,0.00,,,0.07,Wunderground v.1.15,2013-04-09 10:32:00,
2013-04-09 05:33:00,44.4,42.2,29.87,SE,144,6.0,9.0,92,0.00,,,0.07,Wunderground v.1.15,2013-04-09 10:33:00,
2013-04-09 05:38:00,44.4,42.2,29.88,East,94,5.0,9.0,92,0.00,,,0.07,Wunderground v.1.15,2013-04-09 10:38:00,
2013-04-09 05:39:00,44.4,42.2,29.88,East,88,5.0,9.0,92,0.00,,,0.07,Wunderground v.1.15,2013-04-09 10:39:00,
2013-04-09 05:42:00,44.5,42.6,29.88,East,101,6.0,12.0,93,0.00,,,0.07,Wunderground v.1.15,2013-04-09 10:42:00,
2013-04-09 05:43:00,44.5,42.6,29.87,ESE,105,6.0,12.0,93,0.00,,,0.07,Wunderground v.1.15,2013-04-09 10:43:00,
2013-04-09 05:45:00,44.5,42.6,29.87,ESE,105,6.0,12.0,93,0.00,,,0.07,Wunderground v.1.15,2013-04-09 10:45:00,
2013-04-09 05:49:00,44.6,42.7,29.87,ESE,118,6.0,12.0,93,0.00,,,0.07,Wunderground v.1.15,2013-04-09 10:49:00,
2013-04-09 05:50:00,44.7,42.8,29.87,ESE,105,6.0,6.0,93,0.00,,,0.07,Wunderground v.1.15,2013-04-09 10:50:00,
2013-04-09 05:52:00,44.7,42.8,29.87,ESE,114,5.0,6.0,93,0.00,,,0.07,Wunderground v.1.15,2013-04-09 10:52:00,
2013-04-09 05:56:00,44.8,42.9,29.88,ENE,69,5.0,6.0,93,0.00,,,0.07,Wunderground v.1.15,2013-04-09 10:56:00,
2013-04-09 05:58:00,44.8,42.9,29.88,ESE,111,4.0,6.0,93,0.00,,,0.07,Wunderground v.1.15,2013-04-09 10:58:00,
2013-04-09 05:59:00,44.9,43.0,29.88,East,98,5.0,6.0,93,0.00,,,0.07,Wunderground v.1.15,2013-04-09 10:59:00,
2013-04-09 06:00:00,44.9,43.0,29.88,ESE,105,4.0,5.0,93,0.00,,,0.07,Wunderground v.1.15,2013-04-09 11:00:00,
2013-04-09 06:05:00,45.0,42.8,29.87,ESE,108,5.0,5.0,92,0.00,,,0.07,Wunderground v.1.15,2013-04-09 11:05:00,
2013-04-09 06:08:00,45.0,42.8,29.88,ENE,75,5.0,6.0,92,0.00,,,0.07,Wunderground v.1.15,2013-04-09 11:08:00,
2013-04-09 06:10:00,45.1,42.9,29.88,East,85,5.0,5.0,92,0.00,,,0.07,Wunderground v.1.15,2013-04-09 11:10:00,
2013-04-09 06:11:00,45.1,42.9,29.88,East,92,5.0,5.0,92,0.00,,,0.07,Wunderground v.1.15,2013-04-09 11:11:00,
2013-04-09 06:12:00,45.1,42.9,29.88,East,95,5.0,5.0,92,0.00,,,0.07,Wunderground v.1.15,2013-04-09 11:12:00,
2013-04-09 06:17:00,45.1,42.9,29.87,East,88,4.0,7.0,92,0.00,,,0.07,Wunderground v.1.15,2013-04-09 11:17:00,
2013-04-09 06:18:00,45.1,42.9,29.88,East,90,4.0,7.0,92,0.00,,,0.07,Wunderground v.1.15,2013-04-09 11:18:00,
2013-04-09 06:22:00,45.1,42.9,29.88,East,80,4.0,4.0,92,0.00,,,0.07,Wunderground v.1.15,2013-04-09 11:22:00,
2013-04-09 06:24:00,45.2,43.0,29.88,ENE,67,3.0,4.0,92,0.00,,,0.07,Wunderground v.1.15,2013-04-09 11:24:00,
2013-04-09 06:27:00,45.2,43.0,29.88,East,101,3.0,6.0,92,0.00,,,0.07,Wunderground v.1.15,2013-04-09 11:27:00,
2013-04-09 06:30:00,45.2,43.0,29.88,ENE,73,3.0,3.0,92,0.00,,,0.07,Wunderground v.1.15,2013-04-09 11:30:00,
2013-04-09 06:32:00,45.2,43.0,29.88,ENE,71,3.0,3.0,92,0.00,,,0.07,Wunderground v.1.15,2013-04-09 11:32:00,
2013-04-09 06:35:00,45.3,43.1,29.88,East,87,3.0,4.0,92,0.00,,,0.07,Wunderground v.1.15,2013-04-09 11:35:00,
2013-04-09 06:36:00,45.3,43.1,29.88,ESE,105,3.0,4.0,92,0.00,,,0.07,Wunderground v.1.15,2013-04-09 11:36:00,
2013-04-09 06:38:00,45.3,43.1,29.87,East,90,3.0,6.0,92,0.00,,,0.07,Wunderground v.1.15,2013-04-09 11:38:00,
2013-04-09 06:39:00,45.3,43.1,29.87,East,88,3.0,6.0,92,0.00,,,0.07,Wunderground v.1.15,2013-04-09 11:39:00,
2013-04-09 06:42:00,45.3,43.1,29.86,ENE,71,3.0,5.0,92,0.00,,,0.07,Wunderground v.1.15,2013-04-09 11:42:00,
2013-04-09 06:45:00,45.3,43.1,29.85,East,79,4.0,5.0,92,0.00,,,0.07,Wunderground v.1.15,2013-04-09 11:45:00,
2013-04-09 06:47:00,45.3,43.1,29.85,ENE,76,4.0,6.0,92,0.00,,,0.07,Wunderground v.1.15,2013-04-09 11:47:00,
2013-04-09 06:48:00,45.3,43.1,29.85,NE,47,4.0,6.0,92,0.00,,,0.07,Wunderground v.1.15,2013-04-09 11:48:00,
2013-04-09 06:52:00,45.4,43.2,29.85,East,101,5.0,8.0,92,0.00,,,0.07,Wunderground v.1.15,2013-04-09 11:52:00,
2013-04-09 06:53:00,45.4,43.2,29.85,ENE,71,5.0,8.0,92,0.00,,,0.07,Wunderground v.1.15,2013-04-09 11:53:00,
2013-04-09 06:54:00,45.4,43.2,29.85,ENE,73,5.0,8.0,92,0.00,,,0.07,Wunderground v.1.15,2013-04-09 11:54:00,
2013-04-09 06:55:00,45.4,43.2,29.85,East,97,5.0,8.0,92,0.00,,,0.07,Wunderground v.1.15,2013-04-09 11:55:00,
2013-04-09 06:59:00,45.4,43.2,29.85,East,82,5.0,8.0,92,0.00,,,0.07,Wunderground v.1.15,2013-04-09 11:59:00,
2013-04-09 07:00:00,45.5,43.3,29.86,East,94,5.0,6.0,92,0.00,,,0.07,Wunderground v.1.15,2013-04-09 12:00:00,
2013-04-09 07:02:00,45.5,43.3,29.87,East,91,4.0,6.0,92,0.00,,,0.07,Wunderground v.1.15,2013-04-09 12:02:00,
2013-04-09 07:03:00,45.5,43.3,29.87,East,91,4.0,6.0,92,0.00,,,0.07,Wunderground v.1.15,2013-04-09 12:03:00,
2013-04-09 07:07:00,45.6,43.4,29.88,ESE,107,4.0,6.0,92,0.00,,,0.07,Wunderground v.1.15,2013-04-09 12:07:00,
2013-04-09 07:08:00,45.7,43.5,29.87,ESE,107,4.0,6.0,92,0.00,,,0.07,Wunderground v.1.15,2013-04-09 12:08:00,
2013-04-09 07:10:00,45.7,43.5,29.87,East,83,4.0,7.0,92,0.00,,,0.07,Wunderground v.1.15,2013-04-09 12:10:00,
2013-04-09 07:14:00,45.8,43.6,29.87,East,86,5.0,12.0,92,0.00,,,0.07,Wunderground v.1.15,2013-04-09 12:14:00,
2013-04-09 07:15:00,45.8,43.3,29.87,East,101,5.0,12.0,91,0.00,,,0.07,Wunderground v.1.15,2013-04-09 12:15:00,
2013-04-09 07:17:00,45.9,43.4,29.87,ENE,57,5.0,12.0,91,0.00,,,0.07,Wunderground v.1.15,2013-04-09 12:17:00,
2013-04-09 07:20:00,45.9,43.4,29.87,East,84,4.0,4.0,91,0.00,,,0.07,Wunderground v.1.15,2013-04-09 12:20:00,
2013-04-09 07:22:00,45.9,43.4,29.87,East,98,4.0,6.0,91,0.00,,,0.07,Wunderground v.1.15,2013-04-09 12:22:00,
2013-04-09 07:23:00,45.9,43.4,29.87,ENE,78,4.0,6.0,91,0.00,,,0.07,Wunderground v.1.15,2013-04-09 12:23:00,
2013-04-09 07:27:00,46.0,43.5,29.87,East,84,4.0,9.0,91,0.00,,,0.07,Wunderground v.1.15,2013-04-09 12:27:00,
2013-04-09 07:28:00,46.0,43.5,29.87,East,83,4.0,9.0,91,0.00,,,0.07,Wunderground v.1.15,2013-04-09 12:28:00,
2013-04-09 07:29:00,46.0,43.5,29.87,NE,56,4.0,10.0,91,0.00,,,0.07,Wunderground v.1.15,2013-04-09 12:29:00,
2013-04-09 07:33:00,46.1,43.6,29.88,East,93,4.0,4.0,91,0.00,,,0.07,Wunderground v.1.15,2013-04-09 12:33:00,
2013-04-09 07:34:00,46.1,43.6,29.88,East,89,4.0,4.0,91,0.00,,,0.07,Wunderground v.1.15,2013-04-09 12:34:00,
2013-04-09 07:35:00,46.1,43.6,29.88,East,96,4.0,4.0,91,0.00,,,0.07,Wunderground v.1.15,2013-04-09 12:35:00,
2013-04-09 07:36:00,46.1,43.6,29.88,East,96,4.0,4.0,91,0.00,,,0.07,Wunderground v.1.15,2013-04-09 12:36:00,
2013-04-09 07:40:00,46.2,43.7,29.87,ENE,64,3.0,5.0,91,0.00,,,0.07,Wunderground v.1.15,2013-04-09 12:40:00,
2013-04-09 07:43:00,46.2,43.7,29.88,East,84,3.0,5.0,91,0.00,,,0.07,Wunderground v.1.15,2013-04-09 12:43:00,
2013-04-09 07:45:00,46.2,43.7,29.88,East,79,3.0,11.0,91,0.00,,,0.07,Wunderground v.1.15,2013-04-09 12:45:00,
2013-04-09 07:46:00,46.2,43.7,29.88,East,79,4.0,11.0,91,0.00,,,0.07,Wunderground v.1.15,2013-04-09 12:46:00,
2013-04-09 07:53:00,46.2,43.7,29.88,ENE,76,4.0,9.0,91,0.00,,,0.08,Wunderground v.1.15,2013-04-09 12:53:00,
2013-04-09 07:56:00,46.2,43.7,29.88,ENE,74,4.0,9.0,91,0.00,,,0.08,Wunderground v.1.15,2013-04-09 12:56:00,
2013-04-09 08:00:00,46.1,43.9,29.88,ENE,61,3.0,6.0,92,0.00,,,0.08,Wunderground v.1.15,2013-04-09 13:00:00,
2013-04-09 08:01:00,46.1,43.9,29.88,ENE,78,3.0,6.0,92,0.00,,,0.08,Wunderground v.1.15,2013-04-09 13:01:00,
2013-04-09 08:05:00,46.1,43.9,29.88,East,80,3.0,6.0,92,0.00,,,0.08,Wunderground v.1.15,2013-04-09 13:05:00,
2013-04-09 08:06:00,46.1,43.9,29.88,ENE,78,3.0,6.0,92,0.00,,,0.08,Wunderground v.1.15,2013-04-09 13:06:00,
2013-04-09 08:08:00,46.1,43.9,29.88,ENE,71,4.0,6.0,92,0.00,,,0.08,Wunderground v.1.15,2013-04-09 13:08:00,
2013-04-09 08:10:00,46.1,43.9,29.88,NE,52,3.0,6.0,92,0.00,,,0.08,Wunderground v.1.15,2013-04-09 13:10:00,
2013-04-09 08:13:00,46.1,43.9,29.88,NE,34,3.0,6.0,92,0.00,,,0.08,Wunderground v.1.15,2013-04-09 13:13:00,
2013-04-09 08:14:00,46.1,43.9,29.88,NNE,32,3.0,6.0,92,0.00,,,0.08,Wunderground v.1.15,2013-04-09 13:14:00,
2013-04-09 08:15:00,46.1,43.9,29.88,NE,41,4.0,6.0,92,0.00,,,0.08,Wunderground v.1.15,2013-04-09 13:15:00,
2013-04-09 08:16:00,46.1,43.9,29.88,NE,41,4.0,6.0,92,0.00,,,0.08,Wunderground v.1.15,2013-04-09 13:16:00,
2013-04-09 08:20:00,46.1,43.9,29.88,NE,44,3.0,3.0,92,0.00,,,0.08,Wunderground v.1.15,2013-04-09 13:20:00,
2013-04-09 08:22:00,46.1,43.9,29.88,NE,51,3.0,4.0,92,0.00,,,0.08,Wunderground v.1.15,2013-04-09 13:22:00,
2013-04-09 08:23:00,46.2,44.0,29.88,NE,51,3.0,4.0,92,0.00,,,0.08,Wunderground v.1.15,2013-04-09 13:23:00,
2013-04-09 08:28:00,46.1,43.9,29.87,ENE,57,3.0,6.0,92,0.00,,,0.08,Wunderground v.1.15,2013-04-09 13:28:00,
2013-04-09 08:30:00,46.1,43.9,29.87,East,83,3.0,4.0,92,0.00,,,0.08,Wunderground v.1.15,2013-04-09 13:30:00,
2013-04-09 08:33:00,46.1,43.9,29.87,ENE,67,4.0,4.0,92,0.00,,,0.08,Wunderground v.1.15,2013-04-09 13:33:00,
2013-04-09 08:37:00,46.1,43.9,29.86,ENE,71,4.0,7.0,92,0.00,,,0.08,Wunderground v.1.15,2013-04-09 13:37:00,
2013-04-09 08:40:00,46.1,43.9,29.86,ENE,74,4.0,7.0,92,0.00,,,0.08,Wunderground v.1.15,2013-04-09 13:40:00,
2013-04-09 08:41:00,46.1,43.9,29.86,ENE,74,4.0,7.0,92,0.00,,,0.08,Wunderground v.1.15,2013-04-09 13:41:00,
2013-04-09 08:43:00,46.1,43.9,29.86,ENE,75,4.0,8.0,92,0.00,,,0.08,Wunderground v.1.15,2013-04-09 13:43:00,
2013-04-09 08:44:00,46.1,43.9,29.86,East,85,4.0,8.0,92,0.00,,,0.08,Wunderground v.1.15,2013-04-09 13:44:00,
2013-04-09 08:47:00,46.1,43.9,29.86,ENE,74,5.0,8.0,92,0.00,,,0.08,Wunderground v.1.15,2013-04-09 13:47:00,
2013-04-09 08:49:00,46.1,43.9,29.86,East,101,5.0,8.0,92,0.00,,,0.08,Wunderground v.1.15,2013-04-09 13:49:00,
2013-04-09 08:50:00,46.0,44.1,29.86,ESE,103,5.0,8.0,93,0.00,,,0.08,Wunderground v.1.15,2013-04-09 13:50:00,
2013-04-09 08:53:00,46.1,44.2,29.86,ENE,74,5.0,8.0,93,0.00,,,0.08,Wunderground v.1.15,2013-04-09 13:53:00,
2013-04-09 08:54:00,46.1,44.2,29.86,ENE,63,5.0,11.0,93,0.00,,,0.08,Wunderground v.1.15,2013-04-09 13:54:00,
2013-04-09 08:57:00,46.1,44.2,29.86,ENE,66,5.0,11.0,93,0.00,,,0.08,Wunderground v.1.15,2013-04-09 13:57:00,
2013-04-09 09:00:00,46.1,44.2,29.86,East,80,5.0,6.0,93,0.00,,,0.08,Wunderground v.1.15,2013-04-09 14:00:00,
2013-04-09 09:02:00,46.1,44.2,29.86,ENE,78,5.0,6.0,93,0.00,,,0.08,Wunderground v.1.15,2013-04-09 14:02:00,
2013-04-09 09:03:00,46.2,44.3,29.86,ENE,78,4.0,6.0,93,0.00,,,0.08,Wunderground v.1.15,2013-04-09 14:03:00,
2013-04-09 09:08:00,46.2,44.3,29.85,ENE,78,4.0,7.0,93,0.00,,,0.09,Wunderground v.1.15,2013-04-09 14:08:00,
2013-04-09 09:09:00,46.2,44.3,29.85,ENE,78,4.0,7.0,93,0.00,,,0.09,Wunderground v.1.15,2013-04-09 14:09:00,
2013-04-09 09:10:00,46.2,44.3,29.85,ENE,76,4.0,5.0,93,0.00,,,0.09,Wunderground v.1.15,2013-04-09 14:10:00,
2013-04-09 09:13:00,46.2,44.3,29.85,ESE,102,4.0,6.0,93,0.00,,,0.09,Wunderground v.1.15,2013-04-09 14:13:00,
2013-04-09 09:15:00,46.2,44.3,29.84,East,94,5.0,7.0,93,0.00,,,0.09,Wunderground v.1.15,2013-04-09 14:15:00,
2013-04-09 09:16:00,46.2,44.3,29.85,East,93,5.0,7.0,93,0.00,,,0.09,Wunderground v.1.15,2013-04-09 14:16:00,
2013-04-09 09:18:00,46.3,44.4,29.84,East,79,4.0,7.0,93,0.00,,,0.09,Wunderground v.1.15,2013-04-09 14:18:00,
2013-04-09 09:20:00,46.3,44.4,29.84,East,93,5.0,5.0,93,0.00,,,0.09,Wunderground v.1.15,2013-04-09 14:20:00,
2013-04-09 09:21:00,46.4,44.5,29.84,East,93,5.0,5.0,93,0.00,,,0.09,Wunderground v.1.15,2013-04-09 14:21:00,
2013-04-09 09:23:00,46.5,44.9,29.84,ENE,69,4.0,5.0,94,0.00,,,0.09,Wunderground v.1.15,2013-04-09 14:23:00,
2013-04-09 09:24:00,46.5,44.9,29.84,East,89,4.0,5.0,94,0.00,,,0.09,Wunderground v.1.15,2013-04-09 14:24:00,
2013-04-09 09:27:00,46.7,45.1,29.84,East,81,4.0,5.0,94,0.00,,,0.09,Wunderground v.1.15,2013-04-09 14:27:00,
2013-04-09 09:30:00,46.8,45.2,29.84,East,96,3.0,4.0,94,0.00,,,0.09,Wunderground v.1.15,2013-04-09 14:30:00,
2013-04-09 09:31:00,46.9,45.3,29.84,East,80,3.0,7.0,94,0.00,,,0.09,Wunderground v.1.15,2013-04-09 14:31:00,
2013-04-09 09:35:00,47.1,45.5,29.84,ENE,68,4.0,7.0,94,0.00,,,0.09,Wunderground v.1.15,2013-04-09 14:35:00,
2013-04-09 09:36:00,47.2,45.6,29.84,ENE,63,4.0,7.0,94,0.00,,,0.09,Wunderground v.1.15,2013-04-09 14:36:00,
2013-04-09 09:37:00,47.2,45.6,29.84,East,86,4.0,7.0,94,0.00,,,0.09,Wunderground v.1.15,2013-04-09 14:37:00,
2013-04-09 09:38:00,47.3,45.7,29.84,East,86,4.0,7.0,94,0.00,,,0.09,Wunderground v.1.15,2013-04-09 14:38:00,
2013-04-09 09:42:00,47.3,45.4,29.84,East,82,4.0,7.0,93,0.00,,,0.09,Wunderground v.1.15,2013-04-09 14:42:00,
2013-04-09 09:44:00,47.3,45.4,29.84,ENE,72,5.0,7.0,93,0.00,,,0.09,Wunderground v.1.15,2013-04-09 14:44:00,
2013-04-09 09:50:00,47.3,45.4,29.84,ENE,69,5.0,5.0,93,0.00,,,0.09,Wunderground v.1.15,2013-04-09 14:50:00,
2013-04-09 09:51:00,47.3,45.4,29.84,ENE,63,5.0,7.0,93,0.00,,,0.09,Wunderground v.1.15,2013-04-09 14:51:00,
2013-04-09 09:52:00,47.3,45.4,29.84,NE,52,5.0,7.0,93,0.00,,,0.09,Wunderground v.1.15,2013-04-09 14:52:00,
2013-04-09 09:54:00,47.3,45.4,29.84,NE,48,4.0,7.0,93,0.00,,,0.09,Wunderground v.1.15,2013-04-09 14:54:00,
2013-04-09 09:57:00,47.3,45.4,29.84,ENE,76,4.0,7.0,93,0.00,,,0.09,Wunderground v.1.15,2013-04-09 14:57:00,
2013-04-09 09:59:00,47.4,45.5,29.84,East,96,4.0,7.0,93,0.00,,,0.09,Wunderground v.1.15,2013-04-09 14:59:00,
2013-04-09 10:00:00,47.4,45.5,29.84,ENE,68,4.0,5.0,93,0.00,,,0.09,Wunderground v.1.15,2013-04-09 15:00:00,
2013-04-09 10:03:00,47.4,45.5,29.84,ENE,64,5.0,10.0,93,0.00,,,0.09,Wunderground v.1.15,2013-04-09 15:03:00,
2013-04-09 10:05:00,47.4,45.5,29.84,NE,55,5.0,10.0,93,0.00,,,0.09,Wunderground v.1.15,2013-04-09 15:05:00,
2013-04-09 10:06:00,47.4,45.5,29.84,ENE,59,5.0,10.0,93,0.00,,,0.09,Wunderground v.1.15,2013-04-09 15:06:00,
2013-04-09 10:07:00,47.4,45.5,29.84,East,84,5.0,10.0,93,0.00,,,0.09,Wunderground v.1.15,2013-04-09 15:07:00,
2013-04-09 10:09:00,47.4,45.5,29.84,NE,47,5.0,10.0,93,0.00,,,0.09,Wunderground v.1.15,2013-04-09 15:09:00,
2013-04-09 10:11:00,47.4,45.5,29.84,ENE,59,6.0,8.0,93,0.00,,,0.09,Wunderground v.1.15,2013-04-09 15:11:00,
2013-04-09 10:14:00,47.5,45.6,29.84,ENE,64,5.0,9.0,93,0.00,,,0.09,Wunderground v.1.15,2013-04-09 15:14:00,
2013-04-09 10:18:00,47.5,45.6,29.84,NE,52,5.0,9.0,93,0.00,,,0.09,Wunderground v.1.15,2013-04-09 15:18:00,
2013-04-09 10:19:00,47.5,45.6,29.84,ENE,62,5.0,9.0,93,0.00,,,0.09,Wunderground v.1.15,2013-04-09 15:19:00,
2013-04-09 10:20:00,47.5,45.6,29.84,ENE,68,5.0,5.0,93,0.00,,,0.09,Wunderground v.1.15,2013-04-09 15:20:00,
2013-04-09 10:24:00,47.5,45.6,29.84,East,80,4.0,5.0,93,0.00,,,0.09,Wunderground v.1.15,2013-04-09 15:24:00,
2013-04-09 10:25:00,47.5,45.6,29.84,East,86,4.0,5.0,93,0.00,,,0.09,Wunderground v.1.15,2013-04-09 15:25:00,
2013-04-09 10:26:00,47.5,45.6,29.84,East,85,4.0,5.0,93,0.00,,,0.09,Wunderground v.1.15,2013-04-09 15:26:00,
2013-04-09 10:29:00,47.4,45.5,29.83,ENE,73,5.0,9.0,93,0.00,,,0.09,Wunderground v.1.15,2013-04-09 15:29:00,
2013-04-09 10:30:00,47.5,45.6,29.84,East,85,5.0,5.0,93,0.00,,,0.09,Wunderground v.1.15,2013-04-09 15:30:00,
2013-04-09 10:32:00,47.5,45.6,29.84,East,94,5.0,5.0,93,0.00,,,0.09,Wunderground v.1.15,2013-04-09 15:32:00,
2013-04-09 10:35:00,47.6,45.7,29.84,ENE,62,4.0,6.0,93,0.00,,,0.09,Wunderground v.1.15,2013-04-09 15:35:00,
2013-04-09 10:40:00,47.9,46.0,29.84,ENE,58,4.0,6.0,93,0.00,,,0.09,Wunderground v.1.15,2013-04-09 15:40:00,
2013-04-09 10:43:00,48.0,46.1,29.84,East,85,4.0,6.0,93,0.00,,,0.09,Wunderground v.1.15,2013-04-09 15:43:00,
2013-04-09 10:45:00,48.0,46.1,29.84,NE,41,5.0,10.0,93,0.00,,,0.09,Wunderground v.1.15,2013-04-09 15:45:00,
2013-04-09 10:47:00,48.1,46.2,29.83,ENE,61,4.0,10.0,93,0.00,,,0.09,Wunderground v.1.15,2013-04-09 15:47:00,
2013-04-09 10:49:00,48.1,46.2,29.84,ESE,107,5.0,10.0,93,0.00,,,0.09,Wunderground v.1.15,2013-04-09 15:49:00,
2013-04-09 10:50:00,48.1,46.2,29.84,ENE,76,5.0,5.0,93,0.00,,,0.09,Wunderground v.1.15,2013-04-09 15:50:00,
2013-04-09 10:52:00,48.2,46.3,29.83,East,79,5.0,11.0,93,0.00,,,0.09,Wunderground v.1.15,2013-04-09 15:52:00,
2013-04-09 10:54:00,48.2,46.3,29.83,ENE,78,5.0,11.0,93,0.00,,,0.09,Wunderground v.1.15,2013-04-09 15:54:00,
2013-04-09 10:58:00,48.3,46.4,29.83,East,80,4.0,11.0,93,0.00,,,0.09,Wunderground v.1.15,2013-04-09 15:58:00,
2013-04-09 10:59:00,48.3,46.1,29.83,ENE,59,5.0,11.0,92,0.00,,,0.09,Wunderground v.1.15,2013-04-09 15:59:00,
2013-04-09 11:02:00,48.4,46.2,29.83,ENE,65,5.0,6.0,92,0.00,,,0.09,Wunderground v.1.15,2013-04-09 16:02:00,
2013-04-09 11:04:00,48.5,46.6,29.83,NE,37,5.0,7.0,93,0.00,,,0.09,Wunderground v.1.15,2013-04-09 16:04:00,
2013-04-09 11:07:00,48.6,46.7,29.83,East,88,6.0,7.0,93,0.00,,,0.09,Wunderground v.1.15,2013-04-09 16:07:00,
2013-04-09 11:09:00,48.7,46.5,29.83,ESE,110,6.0,7.0,92,0.00,,,0.09,Wunderground v.1.15,2013-04-09 16:09:00,
2013-04-09 11:15:00,49.0,46.8,29.83,East,97,5.0,6.0,92,0.00,,,0.09,Wunderground v.1.15,2013-04-09 16:15:00,
2013-04-09 11:17:00,49.0,46.8,29.82,ESE,117,5.0,6.0,92,0.00,,,0.09,Wunderground v.1.15,2013-04-09 16:17:00,
2013-04-09 11:18:00,49.1,46.9,29.82,East,101,5.0,6.0,92,0.00,,,0.09,Wunderground v.1.15,2013-04-09 16:18:00,
2013-04-09 11:22:00,49.5,47.6,29.82,East,81,4.0,6.0,93,0.00,,,0.09,Wunderground v.1.15,2013-04-09 16:22:00,
2013-04-09 11:23:00,49.6,47.7,29.82,East,90,4.0,6.0,93,0.00,,,0.09,Wunderground v.1.15,2013-04-09 16:23:00,
2013-04-09 11:26:00,49.9,48.0,29.82,ESE,110,4.0,6.0,93,0.00,,,0.09,Wunderground v.1.15,2013-04-09 16:26:00,
2013-04-09 11:28:00,50.0,47.8,29.82,East,101,4.0,6.0,92,0.00,,,0.09,Wunderground v.1.15,2013-04-09 16:28:00,
2013-04-09 11:31:00,50.3,48.1,29.82,ENE,67,4.0,4.0,92,0.00,,,0.09,Wunderground v.1.15,2013-04-09 16:31:00,
2013-04-09 11:32:00,50.3,48.1,29.82,ENE,65,4.0,11.0,92,0.00,,,0.09,Wunderground v.1.15,2013-04-09 16:32:00,
2013-04-09 11:33:00,50.4,48.2,29.82,East,96,4.0,11.0,92,0.00,,,0.09,Wunderground v.1.15,2013-04-09 16:33:00,
2013-04-09 11:35:00,50.5,48.3,29.81,East,84,4.0,11.0,92,0.00,,,0.09,Wunderground v.1.15,2013-04-09 16:35:00,
2013-04-09 11:37:00,50.6,48.1,29.82,ESE,121,5.0,11.0,91,0.00,,,0.09,Wunderground v.1.15,2013-04-09 16:37:00,
2013-04-09 11:38:00,50.6,48.1,29.82,ESE,107,5.0,11.0,91,0.00,,,0.09,Wunderground v.1.15,2013-04-09 16:38:00,
2013-04-09 11:40:00,50.7,48.2,29.82,ENE,78,5.0,5.0,91,0.00,,,0.09,Wunderground v.1.15,2013-04-09 16:40:00,
2013-04-09 11:42:00,50.8,48.6,29.82,East,81,5.0,5.0,92,0.00,,,0.09,Wunderground v.1.15,2013-04-09 16:42:00,
2013-04-09 11:44:00,50.9,48.7,29.81,East,86,5.0,5.0,92,0.00,,,0.09,Wunderground v.1.15,2013-04-09 16:44:00,
2013-04-09 11:45:00,50.9,48.7,29.81,East,96,4.0,6.0,92,0.00,,,0.09,Wunderground v.1.15,2013-04-09 16:45:00,
2013-04-09 11:48:00,51.0,48.5,29.82,East,83,4.0,6.0,91,0.00,,,0.09,Wunderground v.1.15,2013-04-09 16:48:00,
2013-04-09 11:49:00,51.1,48.6,29.82,East,92,4.0,6.0,91,0.00,,,0.09,Wunderground v.1.15,2013-04-09 16:49:00,
2013-04-09 11:52:00,51.2,48.7,29.82,East,91,4.0,5.0,91,0.00,,,0.09,Wunderground v.1.15,2013-04-09 16:52:00,
2013-04-09 11:54:00,51.2,48.7,29.81,ESE,113,4.0,5.0,91,0.00,,,0.09,Wunderground v.1.15,2013-04-09 16:54:00,
2013-04-09 11:57:00,51.3,48.8,29.81,ESE,114,3.0,5.0,91,0.00,,,0.09,Wunderground v.1.15,2013-04-09 16:57:00,
2013-04-09 12:00:00,51.5,49.3,29.80,ESE,105,3.0,5.0,92,0.00,,,0.09,Wunderground v.1.15,2013-04-09 17:00:00,
2013-04-09 12:01:00,51.6,49.4,29.80,East,93,3.0,5.0,92,0.00,,,0.09,Wunderground v.1.15,2013-04-09 17:01:00,
2013-04-09 12:02:00,51.7,49.5,29.80,ENE,78,2.0,6.0,92,0.00,,,0.09,Wunderground v.1.15,2013-04-09 17:02:00,
2013-04-09 12:07:00,52.2,49.9,29.80,East,87,4.0,6.0,92,0.00,,,0.09,Wunderground v.1.15,2013-04-09 17:07:00,
2013-04-09 12:08:00,52.3,49.8,29.80,East,90,4.0,6.0,91,0.00,,,0.09,Wunderground v.1.15,2013-04-09 17:08:00,
2013-04-09 12:09:00,52.4,49.8,29.80,East,90,4.0,6.0,91,0.00,,,0.09,Wunderground v.1.15,2013-04-09 17:09:00,
2013-04-09 12:15:00,53.2,50.6,29.81,East,93,4.0,6.0,91,0.00,,,0.09,Wunderground v.1.15,2013-04-09 17:15:00,
2013-04-09 12:17:00,53.4,50.8,29.81,East,88,4.0,6.0,91,0.00,,,0.09,Wunderground v.1.15,2013-04-09 17:17:00,
2013-04-09 12:19:00,53.7,51.1,29.81,ENE,72,5.0,11.0,91,0.00,,,0.09,Wunderground v.1.15,2013-04-09 17:19:00,
2013-04-09 12:22:00,53.9,51.0,29.81,ENE,74,5.0,5.0,90,0.00,,,0.09,Wunderground v.1.15,2013-04-09 17:22:00,
2013-04-09 12:26:00,54.2,51.3,29.81,East,87,4.0,5.0,90,0.00,,,0.09,Wunderground v.1.15,2013-04-09 17:26:00,
2013-04-09 12:30:00,54.4,51.5,29.81,East,94,3.0,3.0,90,0.00,,,0.09,Wunderground v.1.15,2013-04-09 17:30:00,
2013-04-09 12:31:00,54.4,51.5,29.81,East,94,2.0,3.0,90,0.00,,,0.09,Wunderground v.1.15,2013-04-09 17:31:00,
2013-04-09 12:33:00,54.6,51.7,29.81,ESE,107,3.0,5.0,90,0.00,,,0.09,Wunderground v.1.15,2013-04-09 17:33:00,
2013-04-09 12:38:00,55.0,51.8,29.81,ENE,74,3.0,5.0,89,0.00,,,0.09,Wunderground v.1.15,2013-04-09 17:38:00,
2013-04-09 12:41:00,55.1,51.9,29.81,East,86,4.0,4.0,89,0.00,,,0.09,Wunderground v.1.15,2013-04-09 17:41:00,
2013-04-09 12:43:00,55.3,52.1,29.81,East,80,4.0,4.0,89,0.00,,,0.09,Wunderground v.1.15,2013-04-09 17:43:00,
2013-04-09 12:44:00,55.4,52.2,29.81,ESE,119,4.0,5.0,89,0.00,,,0.09,Wunderground v.1.15,2013-04-09 17:44:00,
2013-04-09 12:47:00,55.6,52.4,29.81,East,99,4.0,6.0,89,0.00,,,0.09,Wunderground v.1.15,2013-04-09 17:47:00,
2013-04-09 12:50:00,55.8,52.6,29.81,East,98,4.0,4.0,89,0.00,,,0.09,Wunderground v.1.15,2013-04-09 17:50:00,
2013-04-09 12:52:00,55.9,52.7,29.80,SE,124,4.0,4.0,89,0.00,,,0.09,Wunderground v.1.15,2013-04-09 17:52:00,
2013-04-09 12:53:00,56.0,52.8,29.80,East,98,4.0,6.0,89,0.00,,,0.09,Wunderground v.1.15,2013-04-09 17:53:00,
2013-04-09 12:55:00,56.2,53.0,29.80,East,95,4.0,7.0,89,0.00,,,0.09,Wunderground v.1.15,2013-04-09 17:55:00,
2013-04-09 12:58:00,56.6,53.4,29.80,East,98,4.0,7.0,89,0.00,,,0.09,Wunderground v.1.15,2013-04-09 17:58:00,
2013-04-09 13:01:00,56.8,53.0,29.80,ESE,102,5.0,5.0,87,0.00,,,0.09,Wunderground v.1.15,2013-04-09 18:01:00,
2013-04-09 13:02:00,56.8,53.0,29.80,East,101,5.0,5.0,87,0.00,,,0.09,Wunderground v.1.15,2013-04-09 18:02:00,
2013-04-09 13:04:00,57.0,53.2,29.80,SE,127,5.0,6.0,87,0.00,,,0.09,Wunderground v.1.15,2013-04-09 18:04:00,
2013-04-09 13:08:00,57.3,53.5,29.80,ENE,72,5.0,6.0,87,0.00,,,0.09,Wunderground v.1.15,2013-04-09 18:08:00,
2013-04-09 13:10:00,57.5,53.7,29.81,East,82,5.0,5.0,87,0.00,,,0.09,Wunderground v.1.15,2013-04-09 18:10:00,
2013-04-09 13:13:00,57.7,53.9,29.81,East,79,5.0,6.0,87,0.00,,,0.09,Wunderground v.1.15,2013-04-09 18:13:00,
2013-04-09 13:15:00,57.8,54.0,29.80,ESE,117,4.0,6.0,87,0.00,,,0.09,Wunderground v.1.15,2013-04-09 18:15:00,
2013-04-09 13:18:00,58.0,54.2,29.80,ESE,107,4.0,6.0,87,0.00,,,0.09,Wunderground v.1.15,2013-04-09 18:18:00,
2013-04-09 13:22:00,58.3,54.4,29.80,ESE,106,4.0,5.0,87,0.00,,,0.09,Wunderground v.1.15,2013-04-09 18:22:00,
2013-04-09 13:23:00,58.4,54.5,29.80,East,91,4.0,5.0,87,0.00,,,0.09,Wunderground v.1.15,2013-04-09 18:23:00,
2013-04-09 13:24:00,58.5,54.6,29.80,East,90,4.0,5.0,87,0.00,,,0.09,Wunderground v.1.15,2013-04-09 18:24:00,
2013-04-09 13:28:00,58.9,55.0,29.80,East,88,4.0,6.0,87,0.00,,,0.09,Wunderground v.1.15,2013-04-09 18:28:00,
2013-04-09 13:29:00,59.0,55.1,29.81,ESE,108,4.0,6.0,87,0.00,,,0.09,Wunderground v.1.15,2013-04-09 18:29:00,
2013-04-09 13:30:00,59.1,55.2,29.81,ESE,115,4.0,4.0,87,0.00,,,0.09,Wunderground v.1.15,2013-04-09 18:30:00,
2013-04-09 13:31:00,59.2,55.3,29.81,ESE,114,3.0,4.0,87,0.00,,,0.09,Wunderground v.1.15,2013-04-09 18:31:00,
2013-04-09 13:34:00,59.3,54.8,29.81,NE,51,3.0,4.0,85,0.00,,,0.09,Wunderground v.1.15,2013-04-09 18:34:00,
2013-04-09 13:35:00,59.3,54.8,29.81,NE,54,3.0,4.0,85,0.00,,,0.09,Wunderground v.1.15,2013-04-09 18:35:00,
2013-04-09 13:38:00,59.1,54.3,29.80,ENE,61,4.0,5.0,84,0.00,,,0.09,Wunderground v.1.15,2013-04-09 18:38:00,
2013-04-09 13:41:00,58.9,54.1,29.81,NE,55,4.0,6.0,84,0.00,,,0.09,Wunderground v.1.15,2013-04-09 18:41:00,
2013-04-09 13:43:00,58.8,54.0,29.81,ENE,57,4.0,6.0,84,0.00,,,0.09,Wunderground v.1.15,2013-04-09 18:43:00,
2013-04-09 13:46:00,58.7,53.9,29.81,ENE,78,4.0,6.0,84,0.00,,,0.09,Wunderground v.1.15,2013-04-09 18:46:00,
2013-04-09 13:47:00,58.6,53.8,29.81,East,80,4.0,6.0,84,0.00,,,0.09,Wunderground v.1.15,2013-04-09 18:47:00,
2013-04-09 13:48:00,58.6,54.1,29.81,ENE,74,4.0,6.0,85,0.00,,,0.09,Wunderground v.1.15,2013-04-09 18:48:00,
2013-04-09 13:50:00,58.5,54.0,29.81,ENE,74,4.0,4.0,85,0.00,,,0.09,Wunderground v.1.15,2013-04-09 18:50:00,
2013-04-09 13:54:00,58.4,53.9,29.80,ESE,102,3.0,4.0,85,0.00,,,0.09,Wunderground v.1.15,2013-04-09 18:54:00,
2013-04-09 13:55:00,58.4,54.2,29.80,East,101,3.0,4.0,86,0.00,,,0.09,Wunderground v.1.15,2013-04-09 18:55:00,
2013-04-09 13:56:00,58.4,54.2,29.80,East,101,2.0,4.0,86,0.00,,,0.09,Wunderground v.1.15,2013-04-09 18:56:00,
2013-04-09 14:00:00,58.5,54.3,29.80,ESE,113,2.0,3.0,86,0.00,,,0.09,Wunderground v.1.15,2013-04-09 19:00:00,
2013-04-09 14:01:00,58.5,54.3,29.80,ENE,78,2.0,5.0,86,0.00,,,0.09,Wunderground v.1.15,2013-04-09 19:01:00,
2013-04-09 14:03:00,58.5,54.0,29.80,ENE,78,2.0,5.0,85,0.00,,,0.09,Wunderground v.1.15,2013-04-09 19:03:00,
2013-04-09 14:07:00,58.5,54.0,29.80,East,88,3.0,5.0,85,0.00,,,0.09,Wunderground v.1.15,2013-04-09 19:07:00,
2013-04-09 14:12:00,58.5,54.3,29.79,East,89,3.0,4.0,86,0.00,,,0.09,Wunderground v.1.15,2013-04-09 19:12:00,
2013-04-09 14:16:00,58.8,54.6,29.79,ENE,74,3.0,7.0,86,0.00,,,0.09,Wunderground v.1.15,2013-04-09 19:16:00,
2013-04-09 14:18:00,59.0,54.8,29.79,NE,51,4.0,7.0,86,0.00,,,0.09,Wunderground v.1.15,2013-04-09 19:18:00,
2013-04-09 14:22:00,59.3,54.8,29.79,ENE,75,5.0,5.0,85,0.00,,,0.09,Wunderground v.1.15,2013-04-09 19:22:00,
2013-04-09 14:23:00,59.4,54.9,29.79,ENE,78,5.0,5.0,85,0.00,,,0.09,Wunderground v.1.15,2013-04-09 19:23:00,
2013-04-09 14:27:00,59.6,55.1,29.79,East,82,5.0,6.0,85,0.00,,,0.09,Wunderground v.1.15,2013-04-09 19:27:00,
2013-04-09 14:28:00,59.6,55.1,29.79,East,91,5.0,6.0,85,0.00,,,0.09,Wunderground v.1.15,2013-04-09 19:28:00,
2013-04-09 14:32:00,59.8,55.0,29.79,ENE,71,5.0,5.0,84,0.00,,,0.09,Wunderground v.1.15,2013-04-09 19:32:00,
2013-04-09 14:35:00,59.9,55.1,29.79,North,5,5.0,7.0,84,0.00,,,0.09,Wunderground v.1.15,2013-04-09 19:35:00,
2013-04-09 14:38:00,59.8,54.6,29.79,ENE,70,5.0,10.0,83,0.00,,,0.09,Wunderground v.1.15,2013-04-09 19:38:00,
2013-04-09 14:40:00,59.7,54.5,29.79,NE,41,5.0,5.0,83,0.00,,,0.09,Wunderground v.1.15,2013-04-09 19:40:00,
2013-04-09 14:42:00,59.6,54.4,29.79,ENE,63,5.0,5.0,83,0.00,,,0.09,Wunderground v.1.15,2013-04-09 19:42:00,
2013-04-09 14:45:00,59.4,54.2,29.79,East,88,5.0,5.0,83,0.00,,,0.09,Wunderground v.1.15,2013-04-09 19:45:00,
2013-04-09 14:46:00,59.4,53.9,29.79,East,86,5.0,5.0,82,0.00,,,0.09,Wunderground v.1.15,2013-04-09 19:46:00,
2013-04-09 14:49:00,59.2,54.0,29.79,ENE,67,4.0,5.0,83,0.00,,,0.09,Wunderground v.1.15,2013-04-09 19:49:00,
2013-04-09 14:51:00,59.1,54.3,29.79,ENE,75,4.0,5.0,84,0.00,,,0.09,Wunderground v.1.15,2013-04-09 19:51:00,
2013-04-09 14:52:00,59.1,54.3,29.79,East,80,5.0,5.0,84,0.00,,,0.09,Wunderground v.1.15,2013-04-09 19:52:00,
2013-04-09 14:54:00,59.1,54.6,29.79,NNE,33,4.0,5.0,85,0.00,,,0.09,Wunderground v.1.15,2013-04-09 19:54:00,
2013-04-09 14:55:00,59.1,54.3,29.79,NE,49,4.0,5.0,84,0.00,,,0.09,Wunderground v.1.15,2013-04-09 19:55:00,
2013-04-09 14:56:00,59.1,54.3,29.79,ENE,57,4.0,6.0,84,0.00,,,0.09,Wunderground v.1.15,2013-04-09 19:56:00,
2013-04-09 15:02:00,59.0,54.2,29.79,East,81,4.0,4.0,84,0.00,,,0.09,Wunderground v.1.15,2013-04-09 20:02:00,
2013-04-09 15:03:00,59.0,54.2,29.79,East,81,4.0,4.0,84,0.00,,,0.09,Wunderground v.1.15,2013-04-09 20:03:00,
2013-04-09 15:07:00,59.0,54.2,29.79,ENE,66,4.0,6.0,84,0.00,,,0.09,Wunderground v.1.15,2013-04-09 20:07:00,
2013-04-09 15:09:00,58.9,54.1,29.80,NE,49,3.0,6.0,84,0.00,,,0.09,Wunderground v.1.15,2013-04-09 20:09:00,
2013-04-09 15:10:00,58.9,53.7,29.80,NE,44,3.0,6.0,83,0.00,,,0.09,Wunderground v.1.15,2013-04-09 20:10:00,
2013-04-09 15:15:00,58.6,53.8,29.80,NNE,18,4.0,6.0,84,0.00,,,0.09,Wunderground v.1.15,2013-04-09 20:15:00,
2013-04-09 15:17:00,58.6,53.8,29.80,NE,50,4.0,6.0,84,0.00,,,0.09,Wunderground v.1.15,2013-04-09 20:17:00,
2013-04-09 15:21:00,58.2,53.4,29.80,NNE,32,4.0,5.0,84,0.00,,,0.09,Wunderground v.1.15,2013-04-09 20:21:00,
2013-04-09 15:25:00,58.0,53.5,29.80,NE,42,4.0,7.0,85,0.00,,,0.09,Wunderground v.1.15,2013-04-09 20:25:00,
2013-04-09 15:27:00,57.9,53.4,29.80,NNE,23,5.0,7.0,85,0.00,,,0.09,Wunderground v.1.15,2013-04-09 20:27:00,
2013-04-09 15:28:00,57.8,53.3,29.80,NE,35,4.0,7.0,85,0.00,,,0.09,Wunderground v.1.15,2013-04-09 20:28:00,
2013-04-09 15:32:00,57.5,52.7,29.80,East,84,5.0,8.0,84,0.00,,,0.09,Wunderground v.1.15,2013-04-09 20:32:00,
2013-04-09 15:33:00,57.4,52.6,29.80,East,79,5.0,8.0,84,0.00,,,0.09,Wunderground v.1.15,2013-04-09 20:33:00,
2013-04-09 15:37:00,57.1,52.3,29.81,NNE,25,5.0,8.0,84,0.00,,,0.09,Wunderground v.1.15,2013-04-09 20:37:00,
2013-04-09 15:38:00,56.9,52.1,29.81,NNE,24,5.0,10.0,84,0.00,,,0.09,Wunderground v.1.15,2013-04-09 20:38:00,
2013-04-09 15:43:00,56.2,51.4,29.81,NE,44,6.0,7.0,84,0.00,,,0.09,Wunderground v.1.15,2013-04-09 20:43:00,
2013-04-09 15:44:00,56.1,51.3,29.81,NE,42,6.0,7.0,84,0.00,,,0.09,Wunderground v.1.15,2013-04-09 20:44:00,
2013-04-09 15:46:00,55.9,51.5,29.81,NNE,31,6.0,7.0,85,0.00,,,0.09,Wunderground v.1.15,2013-04-09 20:46:00,
2013-04-09 15:47:00,55.7,51.3,29.80,NE,48,6.0,7.0,85,0.00,,,0.09,Wunderground v.1.15,2013-04-09 20:47:00,
2013-04-09 15:50:00,55.4,51.0,29.80,NNW,337,6.0,7.0,85,0.00,,,0.09,Wunderground v.1.15,2013-04-09 20:50:00,
2013-04-09 15:51:00,55.4,51.0,29.80,NNE,19,6.0,12.0,85,0.00,,,0.09,Wunderground v.1.15,2013-04-09 20:51:00,
2013-04-09 15:57:00,54.9,50.5,29.81,North,355,7.0,12.0,85,0.00,,,0.09,Wunderground v.1.15,2013-04-09 20:57:00,
2013-04-09 15:58:00,54.8,50.4,29.81,North,360,7.0,12.0,85,0.00,,,0.09,Wunderground v.1.15,2013-04-09 20:58:00,
2013-04-09 16:01:00,54.5,50.1,29.81,NNW,345,7.0,7.0,85,0.00,,,0.09,Wunderground v.1.15,2013-04-09 21:01:00,
2013-04-09 16:05:00,53.9,49.5,29.81,NE,49,7.0,9.0,85,0.00,,,0.09,Wunderground v.1.15,2013-04-09 21:05:00,
2013-04-09 16:06:00,53.9,49.5,29.81,NNE,19,7.0,9.0,85,0.00,,,0.09,Wunderground v.1.15,2013-04-09 21:06:00,
2013-04-09 16:07:00,53.8,49.7,29.81,NE,41,6.0,9.0,86,0.00,,,0.09,Wunderground v.1.15,2013-04-09 21:07:00,
2013-04-09 16:09:00,53.5,49.4,29.81,NE,45,7.0,9.0,86,0.00,,,0.09,Wunderground v.1.15,2013-04-09 21:09:00,
2013-04-09 16:13:00,53.3,49.5,29.82,ENE,57,6.0,7.0,87,0.00,,,0.09,Wunderground v.1.15,2013-04-09 21:13:00,
2013-04-09 16:15:00,53.1,49.3,29.82,NNE,26,6.0,9.0,87,0.00,,,0.09,Wunderground v.1.15,2013-04-09 21:15:00,
2013-04-09 16:16:00,53.0,49.2,29.82,ENE,69,6.0,10.0,87,0.00,,,0.09,Wunderground v.1.15,2013-04-09 21:16:00,
2013-04-09 16:20:00,52.7,49.2,29.82,NE,42,6.0,6.0,88,0.00,,,0.09,Wunderground v.1.15,2013-04-09 21:20:00,
2013-04-09 16:21:00,52.6,48.8,29.82,NNE,30,6.0,6.0,87,0.00,,,0.09,Wunderground v.1.15,2013-04-09 21:21:00,
2013-04-09 16:22:00,52.6,48.8,29.82,ENE,63,7.0,7.0,87,0.00,,,0.09,Wunderground v.1.15,2013-04-09 21:22:00,
2013-04-09 16:23:00,52.5,48.7,29.82,NE,54,7.0,7.0,87,0.00,,,0.09,Wunderground v.1.15,2013-04-09 21:23:00,
2013-04-09 16:28:00,52.2,48.8,29.82,ENE,62,7.0,12.0,88,0.00,,,0.09,Wunderground v.1.15,2013-04-09 21:28:00,
2013-04-09 16:29:00,52.1,48.7,29.82,NE,52,7.0,12.0,88,0.00,,,0.09,Wunderground v.1.15,2013-04-09 21:29:00,
2013-04-09 16:33:00,51.9,48.5,29.83,NNE,29,6.0,10.0,88,0.00,,,0.09,Wunderground v.1.15,2013-04-09 21:33:00,
2013-04-09 16:35:00,51.8,48.7,29.83,ENE,59,7.0,10.0,89,0.00,,,0.09,Wunderground v.1.15,2013-04-09 21:35:00,
2013-04-09 16:37:00,51.7,48.3,29.83,NNE,28,6.0,10.0,88,0.00,,,0.09,Wunderground v.1.15,2013-04-09 21:37:00,
2013-04-09 16:41:00,51.5,48.1,29.83,NE,34,7.0,7.0,88,0.00,,,0.09,Wunderground v.1.15,2013-04-09 21:41:00,
2013-04-09 16:43:00,51.4,48.0,29.83,NE,43,7.0,9.0,88,0.00,,,0.09,Wunderground v.1.15,2013-04-09 21:43:00,
2013-04-09 16:45:00,51.2,47.8,29.83,NE,44,8.0,9.0,88,0.00,,,0.09,Wunderground v.1.15,2013-04-09 21:45:00,
2013-04-09 16:46:00,51.2,47.8,29.83,North,5,8.0,9.0,88,0.00,,,0.09,Wunderground v.1.15,2013-04-09 21:46:00,
2013-04-09 16:47:00,51.2,47.8,29.83,North,355,8.0,9.0,88,0.00,,,0.09,Wunderground v.1.15,2013-04-09 21:47:00,
2013-04-09 16:51:00,51.0,47.6,29.84,ENE,64,8.0,11.0,88,0.00,,,0.09,Wunderground v.1.15,2013-04-09 21:51:00,
2013-04-09 16:53:00,50.8,47.4,29.84,NE,48,8.0,11.0,88,0.00,,,0.09,Wunderground v.1.15,2013-04-09 21:53:00,
2013-04-09 16:54:00,50.8,47.4,29.84,NNE,17,8.0,11.0,88,0.00,,,0.09,Wunderground v.1.15,2013-04-09 21:54:00,
2013-04-09 16:59:00,50.4,47.0,29.84,NNE,30,7.0,11.0,88,0.00,,,0.09,Wunderground v.1.15,2013-04-09 21:59:00,
2013-04-09 17:00:00,50.3,46.9,29.84,NE,36,7.0,13.0,88,0.00,,,0.09,Wunderground v.1.15,2013-04-09 22:00:00,
2013-04-09 17:01:00,50.2,46.8,29.84,NE,47,7.0,13.0,88,0.00,,,0.09,Wunderground v.1.15,2013-04-09 22:01:00,
2013-04-09 17:04:00,50.0,46.9,29.83,ENE,64,8.0,13.0,89,0.00,,,0.09,Wunderground v.1.15,2013-04-09 22:04:00,
2013-04-09 17:06:00,50.0,46.9,29.84,East,81,7.0,13.0,89,0.00,,,0.09,Wunderground v.1.15,2013-04-09 22:06:00,
2013-04-09 17:07:00,49.9,46.8,29.84,NNE,26,7.0,13.0,89,0.00,,,0.09,Wunderground v.1.15,2013-04-09 22:07:00,
2013-04-09 17:10:00,49.7,46.6,29.84,NNE,24,7.0,9.0,89,0.00,,,0.09,Wunderground v.1.15,2013-04-09 22:10:00,
2013-04-09 17:12:00,49.7,46.6,29.84,ENE,71,8.0,10.0,89,0.00,,,0.09,Wunderground v.1.15,2013-04-09 22:12:00,
2013-04-09 17:13:00,49.6,46.5,29.84,NNE,28,8.0,10.0,89,0.00,,,0.09,Wunderground v.1.15,2013-04-09 22:13:00,
2013-04-09 17:15:00,49.5,46.4,29.83,NNE,26,8.0,13.0,89,0.00,,,0.09,Wunderground v.1.15,2013-04-09 22:15:00,
2013-04-09 17:18:00,49.5,46.4,29.83,ENE,71,8.0,13.0,89,0.00,,,0.09,Wunderground v.1.15,2013-04-09 22:18:00,
2013-04-09 17:20:00,49.5,46.7,29.83,East,84,8.0,10.0,90,0.00,,,0.09,Wunderground v.1.15,2013-04-09 22:20:00,
2013-04-09 17:22:00,49.5,46.7,29.84,East,81,8.0,10.0,90,0.00,,,0.09,Wunderground v.1.15,2013-04-09 22:22:00,
2013-04-09 17:25:00,49.5,46.7,29.84,ENE,59,7.0,15.0,90,0.00,,,0.09,Wunderground v.1.15,2013-04-09 22:25:00,
2013-04-09 17:27:00,49.5,46.7,29.84,ENE,76,7.0,15.0,90,0.00,,,0.09,Wunderground v.1.15,2013-04-09 22:27:00,
2013-04-09 17:30:00,49.7,46.9,29.84,NE,55,6.0,6.0,90,0.00,,,0.09,Wunderground v.1.15,2013-04-09 22:30:00,
2013-04-09 17:32:00,49.7,46.9,29.84,ENE,70,6.0,7.0,90,0.00,,,0.09,Wunderground v.1.15,2013-04-09 22:32:00,
2013-04-09 17:35:00,49.7,46.6,29.84,NNE,25,6.0,8.0,89,0.00,,,0.09,Wunderground v.1.15,2013-04-09 22:35:00,
2013-04-09 17:38:00,49.8,46.7,29.85,NNE,13,6.0,8.0,89,0.00,,,0.09,Wunderground v.1.15,2013-04-09 22:38:00,
2013-04-09 17:40:00,49.7,46.6,29.84,NNE,28,7.0,7.0,89,0.00,,,0.09,Wunderground v.1.15,2013-04-09 22:40:00,
2013-04-09 17:43:00,49.6,46.5,29.84,East,79,7.0,11.0,89,0.00,,,0.09,Wunderground v.1.15,2013-04-09 22:43:00,
2013-04-09 17:45:00,49.5,46.1,29.85,NNE,25,8.0,13.0,88,0.00,,,0.09,Wunderground v.1.15,2013-04-09 22:45:00,
2013-04-09 17:47:00,49.4,46.0,29.85,ENE,58,7.0,13.0,88,0.00,,,0.09,Wunderground v.1.15,2013-04-09 22:47:00,
2013-04-09 17:50:00,49.3,46.2,29.86,NNE,30,6.0,14.0,89,0.00,,,0.09,Wunderground v.1.15,2013-04-09 22:50:00,
2013-04-09 17:51:00,49.3,46.2,29.86,ENE,59,6.0,14.0,89,0.00,,,0.09,Wunderground v.1.15,2013-04-09 22:51:00,
2013-04-09 17:55:00,49.2,46.1,29.86,NE,34,6.0,14.0,89,0.00,,,0.09,Wunderground v.1.15,2013-04-09 22:55:00,
2013-04-09 17:57:00,49.1,46.0,29.86,NE,48,6.0,14.0,89,0.00,,,0.09,Wunderground v.1.15,2013-04-09 22:57:00,
2013-04-09 17:58:00,49.1,46.0,29.86,NE,42,6.0,14.0,89,0.00,,,0.09,Wunderground v.1.15,2013-04-09 22:58:00,
2013-04-09 18:03:00,49.0,45.9,29.86,NE,35,6.0,7.0,89,0.00,,,0.09,Wunderground v.1.15,2013-04-09 23:03:00,
2013-04-09 18:04:00,49.0,45.9,29.86,NE,35,6.0,7.0,89,0.00,,,0.09,Wunderground v.1.15,2013-04-09 23:04:00,
2013-04-09 18:06:00,48.9,45.8,29.86,NNE,23,6.0,7.0,89,0.00,,,0.09,Wunderground v.1.15,2013-04-09 23:06:00,
2013-04-09 18:09:00,48.8,45.7,29.86,North,5,6.0,11.0,89,0.00,,,0.09,Wunderground v.1.15,2013-04-09 23:09:00,
2013-04-09 18:10:00,48.7,45.6,29.86,NE,36,6.0,6.0,89,0.00,,,0.09,Wunderground v.1.15,2013-04-09 23:10:00,
2013-04-09 18:13:00,48.5,45.4,29.86,NNE,22,7.0,14.0,89,0.00,,,0.09,Wunderground v.1.15,2013-04-09 23:13:00,
2013-04-09 18:16:00,48.3,45.2,29.86,NE,56,7.0,14.0,89,0.00,,,0.09,Wunderground v.1.15,2013-04-09 23:16:00,
2013-04-09 18:17:00,48.3,45.2,29.86,NNE,26,7.0,14.0,89,0.00,,,0.09,Wunderground v.1.15,2013-04-09 23:17:00,
2013-04-09 18:19:00,48.1,45.0,29.87,NE,40,7.0,14.0,89,0.00,,,0.09,Wunderground v.1.15,2013-04-09 23:19:00,
2013-04-09 18:20:00,48.0,44.6,29.86,NE,40,7.0,7.0,88,0.00,,,0.09,Wunderground v.1.15,2013-04-09 23:20:00,
2013-04-09 18:22:00,47.8,44.4,29.87,NE,51,7.0,17.0,88,0.00,,,0.09,Wunderground v.1.15,2013-04-09 23:22:00,
2013-04-09 18:24:00,47.6,44.2,29.86,NNE,31,7.0,17.0,88,0.00,,,0.09,Wunderground v.1.15,2013-04-09 23:24:00,
2013-04-09 18:27:00,47.4,44.0,29.86,NE,49,7.0,17.0,88,0.00,,,0.09,Wunderground v.1.15,2013-04-09 23:27:00,
2013-04-09 18:28:00,47.3,43.9,29.86,ENE,63,8.0,17.0,88,0.00,,,0.09,Wunderground v.1.15,2013-04-09 23:28:00,
2013-04-09 18:32:00,47.0,43.9,29.86,ENE,57,8.0,10.0,89,0.00,,,0.09,Wunderground v.1.15,2013-04-09 23:32:00,
2013-04-09 18:33:00,46.9,43.8,29.86,NE,51,7.0,10.0,89,0.00,,,0.09,Wunderground v.1.15,2013-04-09 23:33:00,
2013-04-09 18:35:00,46.7,43.6,29.86,ENE,61,8.0,10.0,89,0.00,,,0.09,Wunderground v.1.15,2013-04-09 23:35:00,
2013-04-09 18:38:00,46.6,43.5,29.86,NE,51,7.0,10.0,89,0.00,,,0.09,Wunderground v.1.15,2013-04-09 23:38:00,
2013-04-09 18:39:00,46.6,43.5,29.87,ENE,65,7.0,14.0,89,0.00,,,0.09,Wunderground v.1.15,2013-04-09 23:39:00,
2013-04-09 18:43:00,46.4,43.3,29.87,NNE,22,7.0,9.0,89,0.00,,,0.09,Wunderground v.1.15,2013-04-09 23:43:00,
2013-04-09 18:44:00,46.4,43.3,29.87,ENE,67,6.0,9.0,89,0.00,,,0.09,Wunderground v.1.15,2013-04-09 23:44:00,
2013-04-09 18:45:00,46.3,43.2,29.86,NNE,24,6.0,9.0,89,0.00,,,0.09,Wunderground v.1.15,2013-04-09 23:45:00,
2013-04-09 18:50:00,46.1,43.3,29.86,NNE,20,7.0,7.0,90,0.00,,,0.09,Wunderground v.1.15,2013-04-09 23:50:00,
2013-04-09 18:51:00,46.1,43.0,29.86,NE,53,7.0,7.0,89,0.00,,,0.09,Wunderground v.1.15,2013-04-09 23:51:00,
2013-04-09 18:54:00,45.9,42.8,29.87,NNE,30,7.0,12.0,89,0.00,,,0.09,Wunderground v.1.15,2013-04-09 23:54:00,
2013-04-09 18:57:00,45.8,42.7,29.87,East,79,8.0,12.0,89,0.00,,,0.09,Wunderground v.1.15,2013-04-09 23:57:00,
2013-04-09 18:59:00,45.7,42.9,29.87,NNE,32,7.0,12.0,90,0.00,,,0.09,Wunderground v.1.15,2013-04-09 23:59:00,
2013-04-09 19:01:00,45.7,42.9,29.87,NNE,26,7.0,11.0,90,0.00,,,0.09,Wunderground v.1.15,2013-04-10 00:01:00,
2013-04-09 19:02:00,45.7,42.9,29.87,ENE,63,8.0,11.0,90,0.00,,,0.09,Wunderground v.1.15,2013-04-10 00:02:00,
2013-04-09 19:03:00,45.6,42.8,29.88,NNE,21,8.0,11.0,90,0.00,,,0.09,Wunderground v.1.15,2013-04-10 00:03:00,
2013-04-09 19:07:00,45.4,42.6,29.88,NNE,26,8.0,13.0,90,0.00,,,0.09,Wunderground v.1.15,2013-04-10 00:07:00,
2013-04-09 19:08:00,45.3,42.2,29.88,NNE,22,8.0,13.0,89,0.00,,,0.09,Wunderground v.1.15,2013-04-10 00:08:00,
2013-04-09 19:09:00,45.3,42.2,29.88,NE,39,8.0,13.0,89,0.00,,,0.09,Wunderground v.1.15,2013-04-10 00:09:00,
2013-04-09 19:12:00,45.1,42.3,29.87,NE,36,7.0,8.0,90,0.00,,,0.09,Wunderground v.1.15,2013-04-10 00:12:00,
2013-04-09 19:13:00,45.1,42.3,29.87,NNE,30,7.0,8.0,90,0.00,,,0.09,Wunderground v.1.15,2013-04-10 00:13:00,
2013-04-09 19:18:00,44.8,41.8,29.88,NNE,30,7.0,13.0,89,0.00,,,0.09,Wunderground v.1.15,2013-04-10 00:18:00,
2013-04-09 19:21:00,44.6,41.6,29.88,NNE,29,8.0,8.0,89,0.00,,,0.09,Wunderground v.1.15,2013-04-10 00:21:00,
2013-04-09 19:22:00,44.6,41.6,29.88,ENE,69,8.0,8.0,89,0.00,,,0.09,Wunderground v.1.15,2013-04-10 00:22:00,
2013-04-09 19:23:00,44.5,41.5,29.88,NE,40,8.0,14.0,89,0.00,,,0.09,Wunderground v.1.15,2013-04-10 00:23:00,
2013-04-09 19:27:00,44.3,41.6,29.88,NNE,30,7.0,14.0,90,0.00,,,0.09,Wunderground v.1.15,2013-04-10 00:27:00,
2013-04-09 19:29:00,44.3,41.6,29.88,NE,46,6.0,14.0,90,0.00,,,0.09,Wunderground v.1.15,2013-04-10 00:29:00,
2013-04-09 19:31:00,44.2,41.5,29.88,NE,53,6.0,9.0,90,0.00,,,0.09,Wunderground v.1.15,2013-04-10 00:31:00,
2013-04-09 19:33:00,44.1,41.4,29.89,NE,56,6.0,9.0,90,0.00,,,0.09,Wunderground v.1.15,2013-04-10 00:33:00,
2013-04-09 19:35:00,44.0,41.3,29.88,East,80,6.0,9.0,90,0.00,,,0.09,Wunderground v.1.15,2013-04-10 00:35:00,
2013-04-09 19:37:00,44.0,41.3,29.88,ENE,63,7.0,10.0,90,0.00,,,0.09,Wunderground v.1.15,2013-04-10 00:37:00,
2013-04-09 19:38:00,44.0,41.0,29.89,East,83,7.0,13.0,89,0.00,,,0.09,Wunderground v.1.15,2013-04-10 00:38:00,
2013-04-09 19:43:00,43.8,41.1,29.89,East,82,8.0,10.0,90,0.00,,,0.09,Wunderground v.1.15,2013-04-10 00:43:00,
2013-04-09 19:44:00,43.8,41.1,29.89,NE,49,8.0,10.0,90,0.00,,,0.09,Wunderground v.1.15,2013-04-10 00:44:00,
2013-04-09 19:45:00,43.7,41.0,29.89,ENE,74,8.0,10.0,90,0.00,,,0.09,Wunderground v.1.15,2013-04-10 00:45:00,
2013-04-09 19:48:00,43.6,40.9,29.89,NE,53,8.0,10.0,90,0.00,,,0.09,Wunderground v.1.15,2013-04-10 00:48:00,
2013-04-09 19:50:00,43.5,40.8,29.89,ENE,76,9.0,9.0,90,0.00,,,0.09,Wunderground v.1.15,2013-04-10 00:50:00,
2013-04-09 19:53:00,43.5,40.8,29.89,ENE,59,8.0,9.0,90,0.00,,,0.09,Wunderground v.1.15,2013-04-10 00:53:00,
2013-04-09 19:55:00,43.4,40.7,29.89,NNE,32,8.0,9.0,90,0.00,,,0.09,Wunderground v.1.15,2013-04-10 00:55:00,
2013-04-09 19:56:00,43.4,40.7,29.89,NNE,18,7.0,9.0,90,0.00,,,0.09,Wunderground v.1.15,2013-04-10 00:56:00,
2013-04-09 19:57:00,43.4,40.7,29.90,NNE,30,7.0,9.0,90,0.00,,,0.09,Wunderground v.1.15,2013-04-10 00:57:00,
2013-04-09 20:01:00,43.4,40.7,29.90,ENE,78,7.0,7.0,90,0.00,,,0.09,Wunderground v.1.15,2013-04-10 01:01:00,
2013-04-09 20:02:00,43.4,40.7,29.90,ENE,74,6.0,7.0,90,0.00,,,0.09,Wunderground v.1.15,2013-04-10 01:02:00,
2013-04-09 20:07:00,43.4,40.7,29.90,NNE,24,7.0,13.0,90,0.00,,,0.09,Wunderground v.1.15,2013-04-10 01:07:00,
2013-04-09 20:08:00,43.4,40.7,29.90,NE,56,7.0,13.0,90,0.00,,,0.09,Wunderground v.1.15,2013-04-10 01:08:00,
2013-04-09 20:11:00,43.3,40.6,29.90,ENE,65,7.0,7.0,90,0.00,,,0.09,Wunderground v.1.15,2013-04-10 01:11:00,
2013-04-09 20:13:00,43.3,40.6,29.90,ENE,63,8.0,9.0,90,0.00,,,0.09,Wunderground v.1.15,2013-04-10 01:13:00,
2013-04-09 20:14:00,43.3,40.6,29.90,NNE,13,8.0,9.0,90,0.00,,,0.09,Wunderground v.1.15,2013-04-10 01:14:00,
2013-04-09 20:15:00,43.3,40.6,29.90,ENE,74,7.0,9.0,90,0.00,,,0.09,Wunderground v.1.15,2013-04-10 01:15:00,
2013-04-09 20:17:00,43.3,40.6,29.90,ENE,67,7.0,9.0,90,0.00,,,0.09,Wunderground v.1.15,2013-04-10 01:17:00,
2013-04-09 20:20:00,43.3,40.3,29.90,ENE,59,7.0,13.0,89,0.00,,,0.09,Wunderground v.1.15,2013-04-10 01:20:00,
2013-04-09 20:23:00,43.3,40.3,29.90,ENE,59,6.0,13.0,89,0.00,,,0.09,Wunderground v.1.15,2013-04-10 01:23:00,
2013-04-09 20:27:00,43.2,40.2,29.90,East,79,7.0,13.0,89,0.00,,,0.09,Wunderground v.1.15,2013-04-10 01:27:00,
2013-04-09 20:28:00,43.1,40.1,29.90,East,92,8.0,13.0,89,0.00,,,0.09,Wunderground v.1.15,2013-04-10 01:28:00,
2013-04-09 20:29:00,43.1,40.1,29.90,ENE,67,8.0,13.0,89,0.00,,,0.09,Wunderground v.1.15,2013-04-10 01:29:00,
2013-04-09 20:31:00,43.1,40.1,29.89,NE,44,8.0,12.0,89,0.00,,,0.09,Wunderground v.1.15,2013-04-10 01:31:00,
2013-04-09 20:33:00,43.0,40.0,29.90,NE,51,9.0,12.0,89,0.00,,,0.09,Wunderground v.1.15,2013-04-10 01:33:00,
2013-04-09 20:35:00,42.9,39.9,29.90,NNE,22,9.0,12.0,89,0.00,,,0.09,Wunderground v.1.15,2013-04-10 01:35:00,
2013-04-09 20:39:00,42.8,39.8,29.90,ENE,67,8.0,12.0,89,0.00,,,0.09,Wunderground v.1.15,2013-04-10 01:39:00,
2013-04-09 20:43:00,42.7,39.7,29.90,ENE,78,7.0,8.0,89,0.00,,,0.09,Wunderground v.1.15,2013-04-10 01:43:00,
2013-04-09 20:44:00,42.7,39.7,29.90,East,89,7.0,11.0,89,0.00,,,0.09,Wunderground v.1.15,2013-04-10 01:44:00,
2013-04-09 20:46:00,42.7,39.7,29.90,East,85,7.0,11.0,89,0.00,,,0.09,Wunderground v.1.15,2013-04-10 01:46:00,
2013-04-09 20:49:00,42.6,39.6,29.90,East,94,6.0,11.0,89,0.00,,,0.09,Wunderground v.1.15,2013-04-10 01:49:00,
2013-04-09 20:51:00,42.6,39.6,29.90,ENE,65,7.0,14.0,89,0.00,,,0.09,Wunderground v.1.15,2013-04-10 01:51:00,
2013-04-09 20:52:00,42.6,39.6,29.90,ENE,78,8.0,14.0,89,0.00,,,0.09,Wunderground v.1.15,2013-04-10 01:52:00,
2013-04-09 20:57:00,42.5,39.5,29.91,ENE,57,7.0,14.0,89,0.00,,,0.09,Wunderground v.1.15,2013-04-10 01:57:00,
2013-04-09 20:58:00,42.5,39.5,29.91,NE,51,7.0,18.0,89,0.00,,,0.09,Wunderground v.1.15,2013-04-10 01:58:00,
2013-04-09 20:59:00,42.4,39.4,29.91,ENE,78,8.0,18.0,89,0.00,,,0.09,Wunderground v.1.15,2013-04-10 01:59:00,
2013-04-09 21:04:00,42.3,39.3,29.91,ENE,67,7.0,9.0,89,0.00,,,0.09,Wunderground v.1.15,2013-04-10 02:04:00,
2013-04-09 21:07:00,42.3,39.3,29.91,East,88,7.0,9.0,89,0.00,,,0.09,Wunderground v.1.15,2013-04-10 02:07:00,
2013-04-09 21:09:00,42.3,39.3,29.91,ENE,73,6.0,12.0,89,0.00,,,0.09,Wunderground v.1.15,2013-04-10 02:09:00,
2013-04-09 21:12:00,42.2,39.2,29.91,North,355,6.0,6.0,89,0.00,,,0.09,Wunderground v.1.15,2013-04-10 02:12:00,
2013-04-09 21:13:00,42.2,39.2,29.91,NNE,28,6.0,6.0,89,0.00,,,0.09,Wunderground v.1.15,2013-04-10 02:13:00,
2013-04-09 21:15:00,42.1,39.1,29.91,NE,34,7.0,7.0,89,0.00,,,0.09,Wunderground v.1.15,2013-04-10 02:15:00,
2013-04-09 21:18:00,42.1,39.1,29.91,NE,40,7.0,7.0,89,0.00,,,0.09,Wunderground v.1.15,2013-04-10 02:18:00,
2013-04-09 21:19:00,42.0,39.0,29.91,NNE,28,7.0,9.0,89,0.00,,,0.09,Wunderground v.1.15,2013-04-10 02:19:00,
2013-04-09 21:23:00,42.0,39.0,29.91,East,86,7.0,14.0,89,0.00,,,0.09,Wunderground v.1.15,2013-04-10 02:23:00,
2013-04-09 21:24:00,42.0,39.0,29.92,East,85,7.0,14.0,89,0.00,,,0.09,Wunderground v.1.15,2013-04-10 02:24:00,
2013-04-09 21:25:00,41.9,38.9,29.92,NE,55,7.0,14.0,89,0.00,,,0.09,Wunderground v.1.15,2013-04-10 02:25:00,
2013-04-09 21:26:00,41.9,38.9,29.92,East,79,7.0,14.0,89,0.00,,,0.09,Wunderground v.1.15,2013-04-10 02:26:00,
2013-04-09 21:29:00,41.8,38.8,29.92,ENE,75,8.0,14.0,89,0.00,,,0.09,Wunderground v.1.15,2013-04-10 02:29:00,
2013-04-09 21:31:00,41.8,38.8,29.92,ENE,66,9.0,11.0,89,0.00,,,0.09,Wunderground v.1.15,2013-04-10 02:31:00,
2013-04-09 21:32:00,41.8,38.8,29.92,ENE,76,9.0,11.0,89,0.00,,,0.09,Wunderground v.1.15,2013-04-10 02:32:00,
2013-04-09 21:33:00,41.8,38.8,29.92,East,82,8.0,11.0,89,0.00,,,0.09,Wunderground v.1.15,2013-04-10 02:33:00,
2013-04-09 21:34:00,41.7,38.7,29.92,NE,49,9.0,11.0,89,0.00,,,0.09,Wunderground v.1.15,2013-04-10 02:34:00,
2013-04-09 21:38:00,41.6,38.6,29.92,NE,53,8.0,13.0,89,0.00,,,0.09,Wunderground v.1.15,2013-04-10 02:38:00,
2013-04-09 21:39:00,41.6,38.6,29.92,NE,52,9.0,13.0,89,0.00,,,0.09,Wunderground v.1.15,2013-04-10 02:39:00,
2013-04-09 21:42:00,41.5,38.5,29.92,East,80,8.0,13.0,89,0.00,,,0.09,Wunderground v.1.15,2013-04-10 02:42:00,
2013-04-09 21:43:00,41.5,38.5,29.92,ENE,63,9.0,13.0,89,0.00,,,0.09,Wunderground v.1.15,2013-04-10 02:43:00,
2013-04-09 21:47:00,41.4,38.7,29.93,ENE,76,8.0,19.0,90,0.00,,,0.09,Wunderground v.1.15,2013-04-10 02:47:00,
2013-04-09 21:48:00,41.4,38.7,29.93,East,88,9.0,19.0,90,0.00,,,0.09,Wunderground v.1.15,2013-04-10 02:48:00,
2013-04-09 21:52:00,41.3,38.6,29.93,NE,53,8.0,12.0,90,0.00,,,0.09,Wunderground v.1.15,2013-04-10 02:52:00,
2013-04-09 21:53:00,41.3,38.6,29.93,ENE,76,8.0,12.0,90,0.00,,,0.09,Wunderground v.1.15,2013-04-10 02:53:00,
2013-04-09 21:54:00,41.3,38.6,29.93,ENE,68,8.0,12.0,90,0.00,,,0.09,Wunderground v.1.15,2013-04-10 02:54:00,
2013-04-09 21:55:00,41.3,38.6,29.93,East,99,8.0,12.0,90,0.00,,,0.09,Wunderground v.1.15,2013-04-10 02:55:00,
2013-04-09 21:58:00,41.3,38.6,29.93,ENE,77,7.0,12.0,90,0.00,,,0.09,Wunderground v.1.15,2013-04-10 02:58:00,
2013-04-09 22:00:00,41.3,38.6,29.93,East,93,7.0,9.0,90,0.00,,,0.09,Wunderground v.1.15,2013-04-10 03:00:00,
2013-04-09 22:01:00,41.3,38.6,29.92,ENE,57,7.0,9.0,90,0.00,,,0.09,Wunderground v.1.15,2013-04-10 03:01:00,
2013-04-09 22:03:00,41.3,38.6,29.92,ENE,78,7.0,9.0,90,0.00,,,0.09,Wunderground v.1.15,2013-04-10 03:03:00,
2013-04-09 22:05:00,41.2,38.5,29.93,NE,48,7.0,13.0,90,0.00,,,0.09,Wunderground v.1.15,2013-04-10 03:05:00,
2013-04-09 22:07:00,41.2,38.5,29.93,East,84,8.0,16.0,90,0.00,,,0.09,Wunderground v.1.15,2013-04-10 03:07:00,
2013-04-09 22:09:00,41.2,38.5,29.93,ENE,75,7.0,16.0,90,0.00,,,0.09,Wunderground v.1.15,2013-04-10 03:09:00,
2013-04-09 22:12:00,41.1,38.4,29.93,East,97,7.0,9.0,90,0.00,,,0.09,Wunderground v.1.15,2013-04-10 03:12:00,
2013-04-09 22:15:00,41.1,38.4,29.92,ENE,61,8.0,9.0,90,0.00,,,0.09,Wunderground v.1.15,2013-04-10 03:15:00,
2013-04-09 22:18:00,41.1,38.4,29.93,NE,44,8.0,13.0,90,0.00,,,0.09,Wunderground v.1.15,2013-04-10 03:18:00,
2013-04-09 22:23:00,41.0,38.3,29.93,ENE,65,8.0,12.0,90,0.00,,,0.09,Wunderground v.1.15,2013-04-10 03:23:00,
2013-04-09 22:24:00,41.0,38.3,29.92,ENE,63,8.0,12.0,90,0.00,,,0.09,Wunderground v.1.15,2013-04-10 03:24:00,
2013-04-09 22:25:00,41.0,38.3,29.92,NE,44,8.0,12.0,90,0.00,,,0.09,Wunderground v.1.15,2013-04-10 03:25:00,
2013-04-09 22:29:00,41.0,38.6,29.92,ESE,107,7.0,12.0,91,0.00,,,0.09,Wunderground v.1.15,2013-04-10 03:29:00,
2013-04-09 22:31:00,41.0,38.6,29.91,ENE,61,6.0,7.0,91,0.00,,,0.09,Wunderground v.1.15,2013-04-10 03:31:00,
2013-04-09 22:33:00,41.0,38.6,29.91,NE,44,7.0,7.0,91,0.00,,,0.09,Wunderground v.1.15,2013-04-10 03:33:00,
2013-04-09 22:35:00,40.9,38.5,29.92,ENE,76,6.0,9.0,91,0.00,,,0.09,Wunderground v.1.15,2013-04-10 03:35:00,
2013-04-09 22:37:00,40.9,38.5,29.92,ENE,71,7.0,11.0,91,0.00,,,0.09,Wunderground v.1.15,2013-04-10 03:37:00,
2013-04-09 22:39:00,40.9,38.5,29.92,East,91,8.0,12.0,91,0.00,,,0.09,Wunderground v.1.15,2013-04-10 03:39:00,
2013-04-09 22:42:00,40.8,38.4,29.92,ENE,67,8.0,8.0,91,0.00,,,0.09,Wunderground v.1.15,2013-04-10 03:42:00,
2013-04-09 22:43:00,40.8,38.4,29.92,ENE,69,8.0,16.0,91,0.00,,,0.09,Wunderground v.1.15,2013-04-10 03:43:00,
2013-04-09 22:45:00,40.7,38.3,29.92,NE,55,8.0,16.0,91,0.00,,,0.09,Wunderground v.1.15,2013-04-10 03:45:00,
2013-04-09 22:49:00,40.7,38.3,29.92,NE,35,8.0,16.0,91,0.00,,,0.09,Wunderground v.1.15,2013-04-10 03:49:00,
2013-04-09 22:52:00,40.7,38.3,29.92,ENE,75,7.0,8.0,91,0.00,,,0.09,Wunderground v.1.15,2013-04-10 03:52:00,
2013-04-09 22:55:00,40.7,38.3,29.92,East,80,7.0,8.0,91,0.00,,,0.09,Wunderground v.1.15,2013-04-10 03:55:00,
2013-04-09 22:56:00,40.7,38.3,29.92,East,86,7.0,10.0,91,0.00,,,0.09,Wunderground v.1.15,2013-04-10 03:56:00,
2013-04-09 22:58:00,40.6,38.2,29.92,ESE,104,6.0,10.0,91,0.00,,,0.09,Wunderground v.1.15,2013-04-10 03:58:00,
2013-04-09 23:00:00,40.6,38.2,29.91,ESE,112,7.0,7.0,91,0.00,,,0.09,Wunderground v.1.15,2013-04-10 04:00:00,
2013-04-09 23:02:00,40.5,38.1,29.91,NE,49,7.0,10.0,91,0.00,,,0.09,Wunderground v.1.15,2013-04-10 04:02:00,
2013-04-09 23:03:00,40.5,38.1,29.91,East,82,7.0,10.0,91,0.00,,,0.09,Wunderground v.1.15,2013-04-10 04:03:00,
2013-04-09 23:08:00,40.4,38.0,29.91,NE,53,7.0,10.0,91,0.00,,,0.09,Wunderground v.1.15,2013-04-10 04:08:00,
2013-04-09 23:13:00,40.3,38.2,29.91,East,90,7.0,13.0,92,0.00,,,0.09,Wunderground v.1.15,2013-04-10 04:13:00,
2013-04-09 23:14:00,40.4,38.0,29.91,ENE,78,7.0,13.0,91,0.00,,,0.09,Wunderground v.1.15,2013-04-10 04:14:00,
2013-04-09 23:19:00,40.3,38.2,29.91,NNE,32,6.0,13.0,92,0.00,,,0.09,Wunderground v.1.15,2013-04-10 04:19:00,
2013-04-09 23:22:00,40.3,38.2,29.91,ENE,67,6.0,6.0,92,0.00,,,0.10,Wunderground v.1.15,2013-04-10 04:22:00,
2013-04-09 23:24:00,40.3,38.2,29.91,NE,42,6.0,12.0,92,0.00,,,0.10,Wunderground v.1.15,2013-04-10 04:24:00,
2013-04-09 23:29:00,40.3,38.2,29.92,ENE,73,6.0,12.0,92,0.00,,,0.10,Wunderground v.1.15,2013-04-10 04:29:00,
2013-04-09 23:30:00,40.3,38.2,29.92,ENE,74,5.0,9.0,92,0.00,,,0.10,Wunderground v.1.15,2013-04-10 04:30:00,
2013-04-09 23:32:00,40.3,38.2,29.92,NNE,25,5.0,10.0,92,0.00,,,0.10,Wunderground v.1.15,2013-04-10 04:32:00,
2013-04-09 23:35:00,40.3,38.2,29.92,ENE,64,6.0,10.0,92,0.00,,,0.10,Wunderground v.1.15,2013-04-10 04:35:00,
2013-04-09 23:36:00,40.3,38.2,29.92,NE,54,6.0,10.0,92,0.00,,,0.10,Wunderground v.1.15,2013-04-10 04:36:00,
2013-04-09 23:39:00,40.3,38.2,29.92,East,86,7.0,12.0,92,0.00,,,0.10,Wunderground v.1.15,2013-04-10 04:39:00,
2013-04-09 23:41:00,40.3,38.2,29.92,NE,56,7.0,7.0,92,0.00,,,0.10,Wunderground v.1.15,2013-04-10 04:41:00,
2013-04-09 23:42:00,40.3,38.2,29.92,East,79,7.0,7.0,92,0.00,,,0.10,Wunderground v.1.15,2013-04-10 04:42:00,
2013-04-09 23:46:00,40.3,38.2,29.92,ENE,78,8.0,11.0,92,0.00,,,0.10,Wunderground v.1.15,2013-04-10 04:46:00,
2013-04-09 23:48:00,40.3,38.2,29.91,ENE,59,7.0,11.0,92,0.00,,,0.10,Wunderground v.1.15,2013-04-10 04:48:00,
2013-04-09 23:49:00,40.3,38.2,29.92,NNE,25,7.0,11.0,92,0.00,,,0.10,Wunderground v.1.15,2013-04-10 04:49:00,
2013-04-09 23:53:00,40.2,38.3,29.91,East,95,7.0,14.0,93,0.00,,,0.10,Wunderground v.1.15,2013-04-10 04:53:00,
2013-04-09 23:54:00,40.2,38.3,29.91,ENE,70,7.0,14.0,93,0.00,,,0.10,Wunderground v.1.15,2013-04-10 04:54:00,
2013-04-09 23:55:00,40.2,38.3,29.91,ENE,70,7.0,14.0,93,0.00,,,0.10,Wunderground v.1.15,2013-04-10 04:55:00,
2013-04-09 23:56:00,40.2,38.3,29.91,ENE,69,7.0,14.0,93,0.00,,,0.10,Wunderground v.1.15,2013-04-10 04:56:00,